Time,TemperatureF,DewpointF,PressureIn,WindDirection,WindDirectionDegrees,WindSpeedMPH,WindSpeedGustMPH,Humidity,HourlyPrecipIn,Conditions,Clouds,dailyrainin,SoftwareType,DateUTC
2013-01-20 00:00:00,73.6,69.8,29.90,South,180,6.0,8.0,92,0.00,,,0.00,meteohub,2013-01-20 04:00:00,
2013-01-20 00:02:00,73.6,69.8,29.90,West,270,5.0,8.0,92,0.00,,,0.00,meteohub,2013-01-20 04:02:00,
2013-01-20 00:06:00,73.6,69.6,29.90,West,270,5.0,8.0,92,0.00,,,0.00,meteohub,2013-01-20 04:06:00,
2013-01-20 00:07:00,73.6,69.6,29.90,West,270,5.0,8.0,92,0.00,,,0.00,meteohub,2013-01-20 04:07:00,
2013-01-20 00:12:00,73.6,69.6,29.90,West,270,6.0,8.0,92,0.00,,,0.00,meteohub,2013-01-20 04:12:00,
2013-01-20 00:17:00,73.6,69.6,29.91,West,270,7.0,9.0,92,0.00,,,0.00,meteohub,2013-01-20 04:17:00,
2013-01-20 00:18:00,73.6,69.6,29.90,West,270,6.0,9.0,92,0.00,,,0.00,meteohub,2013-01-20 04:18:00,
2013-01-20 00:22:00,73.6,69.6,29.90,West,270,4.0,9.0,91,0.00,,,0.00,meteohub,2013-01-20 04:22:00,
2013-01-20 00:24:00,73.6,69.6,29.90,NW,315,7.0,9.0,91,0.00,,,0.00,meteohub,2013-01-20 04:24:00,
2013-01-20 00:27:00,73.6,69.6,29.90,West,270,8.0,9.0,92,0.00,,,0.00,meteohub,2013-01-20 04:27:00,
2013-01-20 00:30:00,73.6,69.6,29.89,SW,225,4.0,9.0,92,0.00,,,0.00,meteohub,2013-01-20 04:30:00,
2013-01-20 00:33:00,73.6,69.6,29.89,West,270,7.0,8.0,92,0.00,,,0.00,meteohub,2013-01-20 04:33:00,
2013-01-20 00:35:00,73.4,69.6,29.89,West,270,7.0,8.0,92,0.00,,,0.00,meteohub,2013-01-20 04:35:00,
2013-01-20 00:38:00,73.4,69.6,29.90,SW,225,5.0,8.0,92,0.00,,,0.00,meteohub,2013-01-20 04:38:00,
2013-01-20 00:40:00,73.4,69.6,29.89,NW,315,7.0,8.0,92,0.00,,,0.00,meteohub,2013-01-20 04:40:00,
2013-01-20 00:44:00,73.4,69.6,29.89,West,270,6.0,8.0,92,0.00,,,0.00,meteohub,2013-01-20 04:44:00,
2013-01-20 00:45:00,73.4,69.6,29.89,NW,315,4.0,7.0,92,0.00,,,0.00,meteohub,2013-01-20 04:45:00,
2013-01-20 00:50:00,73.4,69.6,29.89,West,270,7.0,7.0,92,0.00,,,0.00,meteohub,2013-01-20 04:50:00,
2013-01-20 00:55:00,73.6,69.6,29.89,West,270,8.0,10.0,92,0.00,,,0.00,meteohub,2013-01-20 04:55:00,
2013-01-20 00:56:00,73.4,69.6,29.89,NW,315,5.0,10.0,92,0.00,,,0.00,meteohub,2013-01-20 04:56:00,
2013-01-20 01:00:00,73.4,69.6,29.89,West,270,6.0,10.0,92,0.00,,,0.00,meteohub,2013-01-20 05:00:00,
2013-01-20 01:01:00,73.4,69.6,29.89,West,270,7.0,10.0,92,0.00,,,0.00,meteohub,2013-01-20 05:01:00,
2013-01-20 01:03:00,73.4,69.6,29.89,NW,315,5.0,10.0,91,0.00,,,0.00,meteohub,2013-01-20 05:03:00,
2013-01-20 01:04:00,73.4,69.6,29.89,NW,315,5.0,10.0,91,0.00,,,0.00,meteohub,2013-01-20 05:04:00,
2013-01-20 01:06:00,73.4,69.6,29.89,West,270,5.0,10.0,91,0.00,,,0.00,meteohub,2013-01-20 05:06:00,
2013-01-20 01:07:00,73.4,69.6,29.89,West,270,4.0,10.0,90,0.00,,,0.00,meteohub,2013-01-20 05:07:00,
2013-01-20 01:10:00,73.4,69.6,29.88,NW,315,4.0,10.0,90,0.00,,,0.00,meteohub,2013-01-20 05:10:00,
2013-01-20 01:15:00,73.4,69.4,29.89,WNW,293,7.0,9.0,89,0.00,,,0.00,meteohub,2013-01-20 05:15:00,
2013-01-20 01:16:00,73.4,69.4,29.89,West,270,5.0,7.0,89,0.00,,,0.00,meteohub,2013-01-20 05:16:00,
2013-01-20 01:17:00,73.4,69.4,29.89,NW,315,7.0,7.0,89,0.00,,,0.00,meteohub,2013-01-20 05:17:00,
2013-01-20 01:22:00,73.4,69.4,29.88,West,270,5.0,7.0,88,0.00,,,0.00,meteohub,2013-01-20 05:22:00,
2013-01-20 01:23:00,73.4,69.1,29.88,NW,315,7.0,7.0,88,0.00,,,0.00,meteohub,2013-01-20 05:23:00,
2013-01-20 01:27:00,73.4,69.1,29.88,West,270,8.0,8.0,88,0.00,,,0.00,meteohub,2013-01-20 05:27:00,
2013-01-20 01:29:00,73.6,69.1,29.88,NW,315,5.0,8.0,88,0.00,,,0.00,meteohub,2013-01-20 05:29:00,
2013-01-20 01:30:00,73.6,69.1,29.88,NW,315,4.0,8.0,88,0.00,,,0.00,meteohub,2013-01-20 05:30:00,
2013-01-20 01:32:00,73.6,69.1,29.88,NW,315,6.0,8.0,88,0.00,,,0.00,meteohub,2013-01-20 05:32:00,
2013-01-20 01:34:00,73.4,69.1,29.88,West,270,8.0,8.0,88,0.00,,,0.00,meteohub,2013-01-20 05:34:00,
2013-01-20 01:35:00,73.4,69.1,29.88,NW,315,8.0,8.0,88,0.00,,,0.00,meteohub,2013-01-20 05:35:00,
2013-01-20 01:36:00,73.4,69.1,29.88,West,270,8.0,8.0,88,0.00,,,0.00,meteohub,2013-01-20 05:36:00,
2013-01-20 01:40:00,73.4,69.1,29.88,West,270,6.0,8.0,88,0.00,,,0.00,meteohub,2013-01-20 05:40:00,
2013-01-20 01:42:00,73.4,69.1,29.88,West,270,6.0,8.0,88,0.00,,,0.00,meteohub,2013-01-20 05:42:00,
2013-01-20 01:43:00,73.4,69.1,29.88,WNW,293,6.0,8.0,89,0.00,,,0.00,meteohub,2013-01-20 05:43:00,
2013-01-20 01:45:00,73.2,69.1,29.87,NW,315,4.0,8.0,88,0.00,,,0.00,meteohub,2013-01-20 05:45:00,
2013-01-20 01:47:00,73.2,69.1,29.88,West,270,4.0,8.0,88,0.00,,,0.00,meteohub,2013-01-20 05:47:00,
2013-01-20 01:48:00,73.2,69.1,29.88,West,270,4.0,8.0,88,0.00,,,0.00,meteohub,2013-01-20 05:48:00,
2013-01-20 01:50:00,73.0,69.1,29.88,West,270,4.0,9.0,88,0.00,,,0.00,meteohub,2013-01-20 05:50:00,
2013-01-20 01:52:00,73.0,69.1,29.88,NW,315,4.0,9.0,88,0.00,,,0.00,meteohub,2013-01-20 05:52:00,
2013-01-20 01:54:00,73.0,69.1,29.88,NW,315,4.0,9.0,89,0.00,,,0.00,meteohub,2013-01-20 05:54:00,
2013-01-20 01:56:00,73.0,69.1,29.88,NW,315,4.0,9.0,89,0.00,,,0.00,meteohub,2013-01-20 05:56:00,
2013-01-20 01:59:00,73.0,69.1,29.88,NW,315,5.0,9.0,89,0.00,,,0.00,meteohub,2013-01-20 05:59:00,
2013-01-20 02:02:00,72.9,69.1,29.88,West,270,4.0,6.0,89,0.00,,,0.00,meteohub,2013-01-20 06:02:00,
2013-01-20 02:05:00,72.9,69.1,29.88,NW,315,6.0,6.0,90,0.00,,,0.00,meteohub,2013-01-20 06:05:00,
2013-01-20 02:06:00,72.9,69.1,29.87,NW,315,6.0,6.0,90,0.00,,,0.00,meteohub,2013-01-20 06:06:00,
2013-01-20 02:08:00,72.7,69.1,29.87,West,270,5.0,6.0,91,0.00,,,0.00,meteohub,2013-01-20 06:08:00,
2013-01-20 02:10:00,72.7,69.1,29.87,West,270,6.0,7.0,91,0.00,,,0.00,meteohub,2013-01-20 06:10:00,
2013-01-20 02:11:00,72.5,69.1,29.87,NW,315,4.0,7.0,91,0.00,,,0.00,meteohub,2013-01-20 06:11:00,
2013-01-20 02:12:00,72.5,69.1,29.87,WNW,293,6.0,7.0,91,0.00,,,0.00,meteohub,2013-01-20 06:12:00,
2013-01-20 02:13:00,72.5,68.9,29.88,WNW,293,8.0,8.0,91,0.00,,,0.00,meteohub,2013-01-20 06:13:00,
2013-01-20 02:15:00,72.3,69.1,29.87,West,270,7.0,8.0,91,0.00,,,0.00,meteohub,2013-01-20 06:15:00,
2013-01-20 02:17:00,72.3,68.9,29.87,North,0,5.0,8.0,92,0.00,,,0.00,meteohub,2013-01-20 06:17:00,
2013-01-20 02:18:00,72.3,68.9,29.87,North,0,5.0,8.0,92,0.00,,,0.00,meteohub,2013-01-20 06:18:00,
2013-01-20 02:19:00,72.3,68.9,29.87,West,270,7.0,8.0,92,0.00,,,0.00,meteohub,2013-01-20 06:19:00,
2013-01-20 02:22:00,72.1,68.9,29.87,West,270,7.0,8.0,92,0.01,,,0.01,meteohub,2013-01-20 06:22:00,
2013-01-20 02:24:00,72.0,68.9,29.87,North,0,3.0,8.0,92,0.01,,,0.01,meteohub,2013-01-20 06:24:00,
2013-01-20 02:25:00,72.0,68.9,29.87,North,0,4.0,8.0,92,0.01,,,0.01,meteohub,2013-01-20 06:25:00,
2013-01-20 02:27:00,72.0,68.9,29.87,WSW,248,3.0,8.0,92,0.01,,,0.01,meteohub,2013-01-20 06:27:00,
2013-01-20 02:29:00,71.8,68.9,29.87,WNW,293,3.0,8.0,92,0.01,,,0.01,meteohub,2013-01-20 06:29:00,
2013-01-20 02:31:00,71.8,68.9,29.87,West,270,8.0,8.0,93,0.01,,,0.01,meteohub,2013-01-20 06:31:00,
2013-01-20 02:32:00,71.8,68.9,29.87,WNW,293,5.0,8.0,93,0.01,,,0.01,meteohub,2013-01-20 06:32:00,
2013-01-20 02:35:00,71.6,69.3,29.88,NW,315,7.0,8.0,93,0.01,,,0.01,meteohub,2013-01-20 06:35:00,
2013-01-20 02:36:00,71.6,68.9,29.87,NW,315,5.0,8.0,93,0.01,,,0.01,meteohub,2013-01-20 06:36:00,
2013-01-20 02:38:00,71.6,68.9,29.87,West,270,4.0,8.0,92,0.01,,,0.01,meteohub,2013-01-20 06:38:00,
2013-01-20 02:40:00,71.6,68.9,29.87,NW,315,7.0,8.0,93,0.01,,,0.01,meteohub,2013-01-20 06:40:00,
2013-01-20 02:41:00,71.6,68.9,29.87,West,270,9.0,9.0,93,0.01,,,0.01,meteohub,2013-01-20 06:41:00,
2013-01-20 02:44:00,71.4,68.9,29.87,West,270,4.0,8.0,94,0.01,,,0.01,meteohub,2013-01-20 06:44:00,
2013-01-20 02:46:00,71.4,68.9,29.87,West,270,4.0,9.0,94,0.01,,,0.01,meteohub,2013-01-20 06:46:00,
2013-01-20 02:48:00,71.4,68.9,29.87,NNW,338,4.0,9.0,94,0.01,,,0.01,meteohub,2013-01-20 06:48:00,
2013-01-20 02:50:00,71.4,68.7,29.87,NW,315,7.0,9.0,94,0.01,,,0.01,meteohub,2013-01-20 06:50:00,
2013-01-20 02:52:00,71.4,68.9,29.87,NW,315,5.0,9.0,94,0.01,,,0.01,meteohub,2013-01-20 06:52:00,
2013-01-20 02:54:00,71.4,68.7,29.87,NNW,338,5.0,9.0,94,0.01,,,0.01,meteohub,2013-01-20 06:54:00,
2013-01-20 02:56:00,71.4,68.7,29.87,WNW,293,4.0,9.0,94,0.01,,,0.01,meteohub,2013-01-20 06:56:00,
2013-01-20 02:57:00,71.4,68.7,29.87,NW,315,4.0,9.0,94,0.01,,,0.01,meteohub,2013-01-20 06:57:00,
2013-01-20 02:58:00,71.4,68.7,29.87,NW,315,4.0,9.0,94,0.01,,,0.01,meteohub,2013-01-20 06:58:00,
2013-01-20 03:02:00,71.4,68.7,29.86,North,0,4.0,7.0,94,0.01,,,0.01,meteohub,2013-01-20 07:02:00,
2013-01-20 03:03:00,71.4,69.3,29.87,NW,315,6.0,7.0,94,0.01,,,0.01,meteohub,2013-01-20 07:03:00,
2013-01-20 03:07:00,71.4,69.1,29.86,NW,315,5.0,6.0,94,0.01,,,0.01,meteohub,2013-01-20 07:07:00,
2013-01-20 03:08:00,71.4,69.3,29.86,NW,315,5.0,6.0,94,0.01,,,0.01,meteohub,2013-01-20 07:08:00,
2013-01-20 03:09:00,71.4,69.1,29.86,NW,315,8.0,8.0,94,0.01,,,0.01,meteohub,2013-01-20 07:09:00,
2013-01-20 03:10:00,71.4,69.1,29.86,NW,315,6.0,6.0,94,0.01,,,0.01,meteohub,2013-01-20 07:10:00,
2013-01-20 03:14:00,71.4,69.1,29.86,NW,315,4.0,6.0,94,0.01,,,0.01,meteohub,2013-01-20 07:14:00,
2013-01-20 03:16:00,71.4,69.1,29.86,NW,315,6.0,8.0,94,0.01,,,0.01,meteohub,2013-01-20 07:16:00,
2013-01-20 03:17:00,71.4,69.1,29.86,NW,315,6.0,8.0,94,0.01,,,0.01,meteohub,2013-01-20 07:17:00,
2013-01-20 03:18:00,71.1,69.1,29.86,NW,315,5.0,8.0,94,0.01,,,0.01,meteohub,2013-01-20 07:18:00,
2013-01-20 03:19:00,71.1,69.1,29.86,NW,315,7.0,8.0,94,0.01,,,0.01,meteohub,2013-01-20 07:19:00,
2013-01-20 03:22:00,71.1,69.1,29.86,NW,315,6.0,8.0,95,0.00,,,0.01,meteohub,2013-01-20 07:22:00,
2013-01-20 03:23:00,71.1,69.1,29.86,NW,315,7.0,8.0,95,0.00,,,0.01,meteohub,2013-01-20 07:23:00,
2013-01-20 03:24:00,71.1,69.1,29.86,NW,315,5.0,8.0,95,0.00,,,0.01,meteohub,2013-01-20 07:24:00,
2013-01-20 03:26:00,71.1,69.1,29.86,NW,315,5.0,7.0,95,0.00,,,0.01,meteohub,2013-01-20 07:26:00,
2013-01-20 03:27:00,71.1,69.1,29.86,WNW,293,4.0,7.0,95,0.00,,,0.01,meteohub,2013-01-20 07:27:00,
2013-01-20 03:28:00,71.1,69.1,29.86,WNW,293,6.0,7.0,95,0.00,,,0.01,meteohub,2013-01-20 07:28:00,
2013-01-20 03:29:00,71.1,69.1,29.86,NW,315,5.0,7.0,95,0.00,,,0.01,meteohub,2013-01-20 07:29:00,
2013-01-20 03:32:00,71.1,69.1,29.86,WNW,293,4.0,7.0,95,0.00,,,0.01,meteohub,2013-01-20 07:32:00,
2013-01-20 03:35:00,71.4,69.1,29.86,WSW,248,3.0,7.0,95,0.00,,,0.01,meteohub,2013-01-20 07:35:00,
2013-01-20 03:37:00,71.4,69.1,29.86,West,270,3.0,7.0,95,0.00,,,0.01,meteohub,2013-01-20 07:37:00,
2013-01-20 03:38:00,71.4,69.1,29.86,West,270,3.0,7.0,95,0.00,,,0.01,meteohub,2013-01-20 07:38:00,
2013-01-20 03:41:00,71.4,69.1,29.86,West,270,3.0,6.0,95,0.00,,,0.01,meteohub,2013-01-20 07:41:00,
2013-01-20 03:42:00,71.4,69.1,29.86,SW,225,4.0,6.0,95,0.00,,,0.01,meteohub,2013-01-20 07:42:00,
2013-01-20 03:43:00,71.4,69.1,29.86,SW,225,4.0,6.0,95,0.00,,,0.01,meteohub,2013-01-20 07:43:00,
2013-01-20 03:44:00,71.4,69.1,29.86,SW,225,4.0,6.0,95,0.00,,,0.01,meteohub,2013-01-20 07:44:00,
2013-01-20 03:46:00,71.4,69.1,29.86,West,270,3.0,5.0,95,0.00,,,0.01,meteohub,2013-01-20 07:46:00,
2013-01-20 03:49:00,71.4,69.1,29.86,West,270,3.0,5.0,95,0.00,,,0.01,meteohub,2013-01-20 07:49:00,
2013-01-20 03:50:00,71.4,69.1,29.86,NW,315,4.0,4.0,95,0.00,,,0.01,meteohub,2013-01-20 07:50:00,
2013-01-20 03:51:00,71.4,69.1,29.86,NW,315,3.0,4.0,95,0.00,,,0.01,meteohub,2013-01-20 07:51:00,
2013-01-20 03:53:00,71.4,69.1,29.86,West,270,2.0,4.0,95,0.00,,,0.01,meteohub,2013-01-20 07:53:00,
2013-01-20 03:55:00,71.4,69.1,29.86,SW,225,2.0,4.0,95,0.00,,,0.01,meteohub,2013-01-20 07:55:00,
2013-01-20 03:56:00,71.4,69.1,29.86,West,270,3.0,4.0,95,0.00,,,0.01,meteohub,2013-01-20 07:56:00,
2013-01-20 03:59:00,71.4,69.1,29.86,West,270,2.0,4.0,95,0.00,,,0.01,meteohub,2013-01-20 07:59:00,
2013-01-20 04:01:00,71.4,69.1,29.86,SW,225,2.0,4.0,95,0.00,,,0.01,meteohub,2013-01-20 08:01:00,
2013-01-20 04:02:00,71.4,69.1,29.86,SW,225,2.0,4.0,95,0.00,,,0.01,meteohub,2013-01-20 08:02:00,
2013-01-20 04:03:00,71.4,69.1,29.86,West,270,3.0,4.0,95,0.00,,,0.01,meteohub,2013-01-20 08:03:00,
2013-01-20 04:07:00,71.6,69.1,29.86,West,270,2.0,4.0,94,0.00,,,0.01,meteohub,2013-01-20 08:07:00,
2013-01-20 04:09:00,71.6,69.1,29.86,West,270,2.0,4.0,94,0.00,,,0.01,meteohub,2013-01-20 08:09:00,
2013-01-20 04:11:00,71.6,69.1,29.86,SW,225,1.0,3.0,93,0.00,,,0.01,meteohub,2013-01-20 08:11:00,
2013-01-20 04:14:00,71.4,69.1,29.86,SW,225,0.0,3.0,94,0.00,,,0.01,meteohub,2013-01-20 08:14:00,
2013-01-20 04:17:00,71.4,69.1,29.86,SW,225,0.0,3.0,94,0.00,,,0.01,meteohub,2013-01-20 08:17:00,
2013-01-20 04:19:00,71.4,69.1,29.86,West,270,0.0,3.0,94,0.00,,,0.01,meteohub,2013-01-20 08:19:00,
2013-01-20 04:22:00,71.4,69.3,29.85,West,270,0.0,2.0,94,0.00,,,0.01,meteohub,2013-01-20 08:22:00,
2013-01-20 04:24:00,71.4,69.3,29.86,NW,315,0.0,2.0,94,0.00,,,0.01,meteohub,2013-01-20 08:24:00,
2013-01-20 04:25:00,71.4,69.3,29.86,West,270,0.0,2.0,94,0.00,,,0.01,meteohub,2013-01-20 08:25:00,
2013-01-20 04:29:00,71.4,69.3,29.86,NW,315,3.0,3.0,94,0.00,,,0.01,meteohub,2013-01-20 08:29:00,
2013-01-20 04:30:00,71.4,69.3,29.86,NW,315,2.0,2.0,94,0.00,,,0.01,meteohub,2013-01-20 08:30:00,
2013-01-20 04:32:00,71.1,69.3,29.86,North,0,2.0,2.0,94,0.00,,,0.01,meteohub,2013-01-20 08:32:00,
2013-01-20 04:36:00,71.1,69.3,29.86,West,270,3.0,3.0,94,0.00,,,0.01,meteohub,2013-01-20 08:36:00,
2013-01-20 04:37:00,71.1,69.3,29.85,West,270,2.0,3.0,94,0.00,,,0.01,meteohub,2013-01-20 08:37:00,
2013-01-20 04:39:00,71.1,69.3,29.85,NW,315,2.0,3.0,94,0.00,,,0.01,meteohub,2013-01-20 08:39:00,
2013-01-20 04:40:00,71.1,69.3,29.85,West,270,2.0,3.0,95,0.00,,,0.01,meteohub,2013-01-20 08:40:00,
2013-01-20 04:42:00,71.1,69.1,29.85,SW,225,2.0,3.0,95,0.00,,,0.01,meteohub,2013-01-20 08:42:00,
2013-01-20 04:45:00,71.4,69.3,29.86,West,270,2.0,3.0,95,0.00,,,0.01,meteohub,2013-01-20 08:45:00,
2013-01-20 04:46:00,71.1,69.3,29.86,WSW,248,3.0,3.0,95,0.00,,,0.01,meteohub,2013-01-20 08:46:00,
2013-01-20 04:47:00,71.1,69.3,29.86,WSW,248,3.0,3.0,95,0.00,,,0.01,meteohub,2013-01-20 08:47:00,
2013-01-20 04:50:00,71.4,69.1,29.86,West,270,3.0,3.0,95,0.00,,,0.01,meteohub,2013-01-20 08:50:00,
2013-01-20 04:51:00,71.4,69.3,29.86,SW,225,2.0,3.0,95,0.00,,,0.01,meteohub,2013-01-20 08:51:00,
2013-01-20 04:54:00,71.4,69.3,29.86,SW,225,3.0,3.0,95,0.00,,,0.01,meteohub,2013-01-20 08:54:00,
2013-01-20 04:56:00,71.4,69.3,29.86,SW,225,4.0,4.0,95,0.00,,,0.01,meteohub,2013-01-20 08:56:00,
2013-01-20 04:57:00,71.4,69.3,29.86,West,270,4.0,4.0,95,0.00,,,0.01,meteohub,2013-01-20 08:57:00,
2013-01-20 04:59:00,71.4,69.3,29.86,South,180,4.0,4.0,95,0.00,,,0.01,meteohub,2013-01-20 08:59:00,
2013-01-20 05:00:00,71.4,69.3,29.86,South,180,4.0,5.0,95,0.00,,,0.01,meteohub,2013-01-20 09:00:00,
2013-01-20 05:02:00,71.4,69.3,29.86,WSW,248,3.0,5.0,95,0.00,,,0.01,meteohub,2013-01-20 09:02:00,
2013-01-20 05:04:00,71.6,69.3,29.86,SSW,203,4.0,5.0,94,0.00,,,0.01,meteohub,2013-01-20 09:04:00,
2013-01-20 05:05:00,71.8,69.3,29.86,West,270,5.0,5.0,94,0.00,,,0.01,meteohub,2013-01-20 09:05:00,
2013-01-20 05:06:00,71.8,69.3,29.86,SW,225,4.0,5.0,94,0.00,,,0.01,meteohub,2013-01-20 09:06:00,
2013-01-20 05:07:00,71.8,69.3,29.86,SW,225,4.0,5.0,94,0.00,,,0.01,meteohub,2013-01-20 09:07:00,
2013-01-20 05:11:00,72.1,69.3,29.86,SW,225,8.0,8.0,94,0.00,,,0.01,meteohub,2013-01-20 09:11:00,
2013-01-20 05:12:00,72.1,69.3,29.86,SW,225,11.0,11.0,94,0.00,,,0.01,meteohub,2013-01-20 09:12:00,
2013-01-20 05:13:00,72.3,69.3,29.86,SW,225,9.0,9.0,94,0.00,,,0.01,meteohub,2013-01-20 09:13:00,
2013-01-20 05:16:00,72.3,69.3,29.86,SW,225,10.0,11.0,94,0.00,,,0.01,meteohub,2013-01-20 09:16:00,
2013-01-20 05:17:00,72.3,69.3,29.86,SW,225,10.0,11.0,94,0.00,,,0.01,meteohub,2013-01-20 09:17:00,
2013-01-20 05:18:00,72.3,69.3,29.86,SSW,203,8.0,11.0,95,0.00,,,0.01,meteohub,2013-01-20 09:18:00,
2013-01-20 05:19:00,72.3,69.3,29.86,SW,225,11.0,11.0,95,0.00,,,0.01,meteohub,2013-01-20 09:19:00,
2013-01-20 05:22:00,72.3,69.3,29.86,WSW,248,7.0,11.0,95,0.00,,,0.01,meteohub,2013-01-20 09:22:00,
2013-01-20 05:23:00,72.3,69.3,29.86,SW,225,6.0,11.0,95,0.00,,,0.01,meteohub,2013-01-20 09:23:00,
2013-01-20 05:24:00,72.3,69.3,29.86,SW,225,8.0,11.0,95,0.00,,,0.01,meteohub,2013-01-20 09:24:00,
2013-01-20 05:25:00,72.3,69.3,29.86,SW,225,6.0,11.0,95,0.00,,,0.01,meteohub,2013-01-20 09:25:00,
2013-01-20 05:29:00,72.3,69.6,29.86,SW,225,9.0,11.0,96,0.00,,,0.01,meteohub,2013-01-20 09:29:00,
2013-01-20 05:30:00,72.3,69.6,29.86,SSW,203,9.0,11.0,96,0.01,,,0.02,meteohub,2013-01-20 09:30:00,
2013-01-20 05:31:00,72.1,69.6,29.86,South,180,7.0,11.0,96,0.01,,,0.02,meteohub,2013-01-20 09:31:00,
2013-01-20 05:32:00,72.1,69.6,29.86,South,180,8.0,11.0,96,0.01,,,0.02,meteohub,2013-01-20 09:32:00,
2013-01-20 05:36:00,72.1,69.6,29.86,South,180,4.0,9.0,96,0.01,,,0.02,meteohub,2013-01-20 09:36:00,
2013-01-20 05:37:00,72.1,69.6,29.86,SW,225,4.0,9.0,96,0.01,,,0.02,meteohub,2013-01-20 09:37:00,
2013-01-20 05:38:00,72.1,69.6,29.86,SSW,203,4.0,9.0,96,0.01,,,0.02,meteohub,2013-01-20 09:38:00,
2013-01-20 05:42:00,72.1,69.6,29.86,South,180,2.0,9.0,96,0.01,,,0.02,meteohub,2013-01-20 09:42:00,
2013-01-20 05:45:00,72.1,69.6,29.86,West,270,4.0,9.0,96,0.01,,,0.02,meteohub,2013-01-20 09:45:00,
2013-01-20 05:47:00,72.1,69.6,29.86,WSW,248,3.0,9.0,96,0.01,,,0.02,meteohub,2013-01-20 09:47:00,
2013-01-20 05:48:00,72.1,69.6,29.86,WNW,293,3.0,9.0,97,0.01,,,0.02,meteohub,2013-01-20 09:48:00,
2013-01-20 05:50:00,72.1,69.6,29.86,West,270,3.0,9.0,97,0.01,,,0.02,meteohub,2013-01-20 09:50:00,
2013-01-20 05:52:00,72.1,69.6,29.86,NW,315,4.0,5.0,97,0.01,,,0.02,meteohub,2013-01-20 09:52:00,
2013-01-20 05:54:00,72.1,69.6,29.86,NW,315,3.0,5.0,97,0.01,,,0.02,meteohub,2013-01-20 09:54:00,
2013-01-20 05:58:00,72.1,69.6,29.86,West,270,2.0,4.0,97,0.01,,,0.02,meteohub,2013-01-20 09:58:00,
2013-01-20 05:59:00,72.1,69.6,29.86,West,270,2.0,4.0,97,0.01,,,0.02,meteohub,2013-01-20 09:59:00,
2013-01-20 06:01:00,72.1,69.6,29.86,WSW,248,4.0,4.0,97,0.01,,,0.02,meteohub,2013-01-20 10:01:00,
2013-01-20 06:04:00,72.1,69.6,29.86,SW,225,4.0,4.0,97,0.01,,,0.02,meteohub,2013-01-20 10:04:00,
2013-01-20 06:05:00,72.1,69.6,29.86,SW,225,3.0,4.0,97,0.01,,,0.02,meteohub,2013-01-20 10:05:00,
2013-01-20 06:06:00,72.1,69.6,29.86,WSW,248,4.0,4.0,97,0.01,,,0.02,meteohub,2013-01-20 10:06:00,
2013-01-20 06:09:00,72.0,69.6,29.86,West,270,4.0,4.0,97,0.01,,,0.02,meteohub,2013-01-20 10:09:00,
2013-01-20 06:11:00,72.0,69.6,29.86,West,270,4.0,4.0,97,0.01,,,0.02,meteohub,2013-01-20 10:11:00,
2013-01-20 06:12:00,72.0,69.6,29.86,West,270,4.0,4.0,97,0.01,,,0.02,meteohub,2013-01-20 10:12:00,
2013-01-20 06:15:00,72.0,69.6,29.86,West,270,3.0,4.0,97,0.01,,,0.02,meteohub,2013-01-20 10:15:00,
2013-01-20 06:16:00,72.0,69.6,29.86,NW,315,8.0,8.0,97,0.01,,,0.02,meteohub,2013-01-20 10:16:00,
2013-01-20 06:17:00,72.0,69.6,29.86,West,270,5.0,5.0,97,0.01,,,0.02,meteohub,2013-01-20 10:17:00,
2013-01-20 06:18:00,72.0,69.6,29.86,West,270,5.0,5.0,97,0.01,,,0.02,meteohub,2013-01-20 10:18:00,
2013-01-20 06:21:00,72.1,69.6,29.86,NW,315,6.0,8.0,96,0.01,,,0.02,meteohub,2013-01-20 10:21:00,
2013-01-20 06:22:00,72.1,69.6,29.86,NW,315,6.0,8.0,96,0.01,,,0.02,meteohub,2013-01-20 10:22:00,
2013-01-20 06:23:00,72.1,69.6,29.86,NW,315,7.0,8.0,96,0.01,,,0.02,meteohub,2013-01-20 10:23:00,
2013-01-20 06:24:00,72.3,69.6,29.86,West,270,6.0,8.0,96,0.01,,,0.02,meteohub,2013-01-20 10:24:00,
2013-01-20 06:27:00,72.5,69.4,29.86,NW,315,3.0,8.0,96,0.01,,,0.02,meteohub,2013-01-20 10:27:00,
2013-01-20 06:29:00,72.5,69.4,29.86,NW,315,4.0,8.0,95,0.01,,,0.02,meteohub,2013-01-20 10:29:00,
2013-01-20 06:32:00,72.5,69.4,29.86,NW,315,4.0,8.0,95,0.00,,,0.02,meteohub,2013-01-20 10:32:00,
2013-01-20 06:34:00,72.5,69.4,29.86,WNW,293,4.0,8.0,95,0.00,,,0.02,meteohub,2013-01-20 10:34:00,
2013-01-20 06:35:00,72.5,69.4,29.86,West,270,5.0,8.0,95,0.00,,,0.02,meteohub,2013-01-20 10:35:00,
2013-01-20 06:37:00,72.5,69.4,29.86,WNW,293,5.0,8.0,94,0.00,,,0.02,meteohub,2013-01-20 10:37:00,
2013-01-20 06:40:00,72.5,69.4,29.86,NW,315,7.0,8.0,94,0.00,,,0.02,meteohub,2013-01-20 10:40:00,
2013-01-20 06:42:00,72.3,69.4,29.86,NW,315,5.0,6.0,94,0.00,,,0.02,meteohub,2013-01-20 10:42:00,
2013-01-20 06:43:00,72.3,69.4,29.87,NW,315,5.0,6.0,94,0.00,,,0.02,meteohub,2013-01-20 10:43:00,
2013-01-20 06:44:00,72.3,69.4,29.87,WNW,293,7.0,7.0,94,0.00,,,0.02,meteohub,2013-01-20 10:44:00,
2013-01-20 06:47:00,72.3,69.4,29.87,North,0,6.0,8.0,94,0.00,,,0.02,meteohub,2013-01-20 10:47:00,
2013-01-20 06:49:00,72.1,69.4,29.87,West,270,7.0,8.0,94,0.00,,,0.02,meteohub,2013-01-20 10:49:00,
2013-01-20 06:52:00,72.1,69.4,29.87,NW,315,4.0,8.0,94,0.00,,,0.02,meteohub,2013-01-20 10:52:00,
2013-01-20 06:53:00,72.1,69.3,29.87,NW,315,5.0,8.0,93,0.00,,,0.02,meteohub,2013-01-20 10:53:00,
2013-01-20 06:54:00,72.1,69.3,29.87,NW,315,5.0,8.0,93,0.00,,,0.02,meteohub,2013-01-20 10:54:00,
2013-01-20 06:55:00,72.1,69.4,29.87,West,270,4.0,8.0,93,0.00,,,0.02,meteohub,2013-01-20 10:55:00,
2013-01-20 06:57:00,72.1,69.4,29.87,West,270,4.0,8.0,93,0.00,,,0.02,meteohub,2013-01-20 10:57:00,
2013-01-20 07:00:00,72.0,69.3,29.87,West,270,6.0,7.0,93,0.00,,,0.02,meteohub,2013-01-20 11:00:00,
2013-01-20 07:01:00,72.0,69.3,29.87,West,270,6.0,7.0,93,0.00,,,0.02,meteohub,2013-01-20 11:01:00,
2013-01-20 07:02:00,72.0,69.3,29.87,WNW,293,4.0,7.0,93,0.00,,,0.02,meteohub,2013-01-20 11:02:00,
2013-01-20 07:07:00,72.0,69.3,29.87,NW,315,6.0,8.0,92,0.00,,,0.02,meteohub,2013-01-20 11:07:00,
2013-01-20 07:09:00,71.8,69.3,29.87,NW,315,4.0,8.0,92,0.00,,,0.02,meteohub,2013-01-20 11:09:00,
2013-01-20 07:10:00,71.8,69.3,29.88,NW,315,4.0,8.0,92,0.00,,,0.02,meteohub,2013-01-20 11:10:00,
2013-01-20 07:12:00,71.8,69.3,29.88,West,270,5.0,8.0,92,0.00,,,0.02,meteohub,2013-01-20 11:12:00,
2013-01-20 07:13:00,71.8,69.3,29.88,NW,315,5.0,8.0,92,0.00,,,0.02,meteohub,2013-01-20 11:13:00,
2013-01-20 07:15:00,72.0,69.3,29.88,NW,315,4.0,8.0,92,0.00,,,0.02,meteohub,2013-01-20 11:15:00,
2013-01-20 07:17:00,72.0,69.3,29.88,NW,315,6.0,8.0,92,0.00,,,0.02,meteohub,2013-01-20 11:17:00,
2013-01-20 07:20:00,72.3,69.3,29.88,NW,315,4.0,6.0,92,0.00,,,0.02,meteohub,2013-01-20 11:20:00,
2013-01-20 07:21:00,72.3,69.3,29.88,NW,315,4.0,6.0,92,0.00,,,0.02,meteohub,2013-01-20 11:21:00,
2013-01-20 07:22:00,72.5,69.3,29.88,WNW,293,4.0,6.0,92,0.00,,,0.02,meteohub,2013-01-20 11:22:00,
2013-01-20 07:25:00,72.7,69.3,29.89,NW,315,6.0,8.0,91,0.00,,,0.02,meteohub,2013-01-20 11:25:00,
2013-01-20 07:26:00,72.9,69.3,29.89,NW,315,5.0,8.0,91,0.00,,,0.02,meteohub,2013-01-20 11:26:00,
2013-01-20 07:29:00,73.0,69.1,29.89,NW,315,6.0,8.0,90,0.00,,,0.02,meteohub,2013-01-20 11:29:00,
2013-01-20 07:32:00,73.4,69.1,29.89,NW,315,4.0,8.0,89,0.00,,,0.02,meteohub,2013-01-20 11:32:00,
2013-01-20 07:33:00,73.6,69.1,29.89,NW,315,4.0,8.0,89,0.00,,,0.02,meteohub,2013-01-20 11:33:00,
2013-01-20 07:35:00,73.8,69.1,29.89,West,270,5.0,8.0,89,0.00,,,0.02,meteohub,2013-01-20 11:35:00,
2013-01-20 07:37:00,74.1,69.1,29.89,North,0,4.0,8.0,88,0.00,,,0.02,meteohub,2013-01-20 11:37:00,
2013-01-20 07:38:00,74.3,69.1,29.89,NW,315,5.0,8.0,88,0.00,,,0.02,meteohub,2013-01-20 11:38:00,
2013-01-20 07:42:00,74.7,69.1,29.89,NW,315,6.0,6.0,87,0.00,,,0.02,meteohub,2013-01-20 11:42:00,
2013-01-20 07:44:00,74.8,69.1,29.89,NW,315,6.0,6.0,86,0.00,,,0.02,meteohub,2013-01-20 11:44:00,
2013-01-20 07:46:00,75.2,69.1,29.89,NE,45,4.0,6.0,84,0.00,,,0.02,meteohub,2013-01-20 11:46:00,
2013-01-20 07:47:00,75.2,69.1,29.89,WNW,293,4.0,6.0,84,0.00,,,0.02,meteohub,2013-01-20 11:47:00,
2013-01-20 07:51:00,75.7,69.1,29.90,North,0,4.0,6.0,83,0.00,,,0.02,meteohub,2013-01-20 11:51:00,
2013-01-20 07:52:00,75.9,69.1,29.90,NW,315,6.0,6.0,83,0.00,,,0.02,meteohub,2013-01-20 11:52:00,
2013-01-20 07:53:00,76.1,69.1,29.90,North,0,6.0,6.0,82,0.00,,,0.02,meteohub,2013-01-20 11:53:00,
2013-01-20 07:57:00,75.9,69.1,29.90,West,270,4.0,6.0,81,0.00,,,0.02,meteohub,2013-01-20 11:57:00,
2013-01-20 07:58:00,76.1,69.1,29.91,North,0,4.0,6.0,81,0.00,,,0.02,meteohub,2013-01-20 11:58:00,
2013-01-20 07:59:00,76.1,69.1,29.91,North,0,4.0,6.0,81,0.00,,,0.02,meteohub,2013-01-20 11:59:00,
2013-01-20 08:02:00,76.3,69.3,29.91,NW,315,4.0,6.0,81,0.00,,,0.02,meteohub,2013-01-20 12:02:00,
2013-01-20 08:04:00,76.6,69.3,29.91,NW,315,4.0,6.0,80,0.00,,,0.02,meteohub,2013-01-20 12:04:00,
2013-01-20 08:05:00,77.0,69.3,29.90,North,0,4.0,6.0,79,0.00,,,0.02,meteohub,2013-01-20 12:05:00,
2013-01-20 08:07:00,77.0,69.3,29.91,NW,315,4.0,6.0,79,0.00,,,0.02,meteohub,2013-01-20 12:07:00,
2013-01-20 08:10:00,77.5,69.3,29.91,NW,315,3.0,6.0,77,0.00,,,0.02,meteohub,2013-01-20 12:10:00,
2013-01-20 08:12:00,78.1,69.3,29.91,SW,225,2.0,5.0,77,0.00,,,0.02,meteohub,2013-01-20 12:12:00,
2013-01-20 08:13:00,78.4,69.3,29.91,West,270,4.0,5.0,76,0.00,,,0.02,meteohub,2013-01-20 12:13:00,
2013-01-20 08:15:00,78.6,69.3,29.91,WNW,293,3.0,5.0,75,0.00,,,0.02,meteohub,2013-01-20 12:15:00,
2013-01-20 08:16:00,78.8,69.3,29.91,WNW,293,3.0,5.0,74,0.00,,,0.02,meteohub,2013-01-20 12:16:00,
2013-01-20 08:17:00,78.8,69.3,29.91,WNW,293,3.0,5.0,74,0.00,,,0.02,meteohub,2013-01-20 12:17:00,
2013-01-20 08:20:00,79.0,69.4,29.92,North,0,3.0,5.0,73,0.00,,,0.02,meteohub,2013-01-20 12:20:00,
2013-01-20 08:21:00,79.0,69.4,29.91,West,270,4.0,4.0,74,0.00,,,0.02,meteohub,2013-01-20 12:21:00,
2013-01-20 08:22:00,79.3,69.4,29.91,East,90,2.0,4.0,73,0.00,,,0.02,meteohub,2013-01-20 12:22:00,
2013-01-20 08:25:00,80.1,69.4,29.91,NW,315,5.0,5.0,73,0.00,,,0.02,meteohub,2013-01-20 12:25:00,
2013-01-20 08:26:00,79.9,69.4,29.91,WNW,293,7.0,7.0,72,0.00,,,0.02,meteohub,2013-01-20 12:26:00,
2013-01-20 08:27:00,79.7,69.4,29.91,North,0,6.0,6.0,72,0.00,,,0.02,meteohub,2013-01-20 12:27:00,
2013-01-20 08:30:00,79.0,69.1,29.91,NW,315,8.0,8.0,72,0.00,,,0.02,meteohub,2013-01-20 12:30:00,
2013-01-20 08:32:00,78.6,69.1,29.92,NW,315,9.0,9.0,74,0.00,,,0.02,meteohub,2013-01-20 12:32:00,
2013-01-20 08:37:00,77.9,69.3,29.92,West,270,9.0,11.0,74,0.00,,,0.02,meteohub,2013-01-20 12:37:00,
2013-01-20 08:38:00,78.1,69.3,29.92,North,0,5.0,11.0,75,0.00,,,0.02,meteohub,2013-01-20 12:38:00,
2013-01-20 08:40:00,78.4,69.1,29.92,NW,315,7.0,11.0,75,0.00,,,0.02,meteohub,2013-01-20 12:40:00,
2013-01-20 08:42:00,78.8,69.3,29.92,North,0,5.0,11.0,74,0.00,,,0.02,meteohub,2013-01-20 12:42:00,
2013-01-20 08:43:00,79.0,69.3,29.92,West,270,7.0,11.0,74,0.00,,,0.02,meteohub,2013-01-20 12:43:00,
2013-01-20 08:46:00,79.5,69.3,29.92,NW,315,10.0,11.0,73,0.00,,,0.02,meteohub,2013-01-20 12:46:00,
2013-01-20 08:48:00,79.7,69.3,29.92,NW,315,11.0,11.0,72,0.00,,,0.02,meteohub,2013-01-20 12:48:00,
2013-01-20 08:49:00,79.5,69.3,29.92,NW,315,11.0,11.0,72,0.00,,,0.02,meteohub,2013-01-20 12:49:00,
2013-01-20 08:50:00,79.3,69.3,29.93,NW,315,11.0,14.0,72,0.00,,,0.02,meteohub,2013-01-20 12:50:00,
2013-01-20 08:52:00,79.0,69.3,29.93,NW,315,9.0,14.0,72,0.00,,,0.02,meteohub,2013-01-20 12:52:00,
2013-01-20 08:53:00,79.0,69.3,29.93,NW,315,9.0,14.0,73,0.00,,,0.02,meteohub,2013-01-20 12:53:00,
2013-01-20 08:55:00,79.0,69.1,29.93,NW,315,11.0,14.0,73,0.00,,,0.02,meteohub,2013-01-20 12:55:00,
2013-01-20 08:57:00,79.0,69.1,29.93,WNW,293,11.0,14.0,73,0.00,,,0.02,meteohub,2013-01-20 12:57:00,
2013-01-20 08:59:00,79.3,69.1,29.93,West,270,6.0,14.0,73,0.00,,,0.02,meteohub,2013-01-20 12:59:00,
2013-01-20 09:00:00,79.3,69.1,29.93,West,270,6.0,14.0,73,0.00,,,0.02,meteohub,2013-01-20 13:00:00,
2013-01-20 09:02:00,79.7,69.1,29.93,West,270,10.0,14.0,73,0.00,,,0.02,meteohub,2013-01-20 13:02:00,
2013-01-20 09:05:00,79.9,69.1,29.93,North,0,8.0,14.0,72,0.00,,,0.02,meteohub,2013-01-20 13:05:00,
2013-01-20 09:07:00,80.1,69.1,29.93,West,270,8.0,13.0,72,0.00,,,0.02,meteohub,2013-01-20 13:07:00,
2013-01-20 09:09:00,80.2,69.1,29.93,West,270,9.0,13.0,72,0.00,,,0.02,meteohub,2013-01-20 13:09:00,
2013-01-20 09:10:00,80.2,69.1,29.93,NW,315,13.0,13.0,72,0.00,,,0.02,meteohub,2013-01-20 13:10:00,
2013-01-20 09:11:00,80.2,69.1,29.93,NW,315,13.0,13.0,72,0.00,,,0.02,meteohub,2013-01-20 13:11:00,
2013-01-20 09:12:00,80.2,69.1,29.94,NW,315,12.0,12.0,71,0.00,,,0.02,meteohub,2013-01-20 13:12:00,
2013-01-20 09:14:00,80.1,69.3,29.93,NW,315,11.0,12.0,71,0.00,,,0.02,meteohub,2013-01-20 13:14:00,
2013-01-20 09:15:00,80.1,69.3,29.93,West,270,8.0,13.0,71,0.00,,,0.02,meteohub,2013-01-20 13:15:00,
2013-01-20 09:16:00,80.2,69.3,29.94,SW,225,11.0,13.0,71,0.00,,,0.02,meteohub,2013-01-20 13:16:00,
2013-01-20 09:18:00,80.6,69.3,29.94,West,270,11.0,13.0,70,0.00,,,0.02,meteohub,2013-01-20 13:18:00,
2013-01-20 09:22:00,80.6,69.3,29.94,SW,225,10.0,13.0,69,0.00,,,0.02,meteohub,2013-01-20 13:22:00,
2013-01-20 09:24:00,80.8,69.3,29.93,NW,315,11.0,13.0,70,0.00,,,0.02,meteohub,2013-01-20 13:24:00,
2013-01-20 09:28:00,81.0,69.3,29.94,SW,225,11.0,13.0,69,0.00,,,0.02,meteohub,2013-01-20 13:28:00,
2013-01-20 09:31:00,81.0,69.3,29.94,West,270,11.0,13.0,69,0.00,,,0.02,meteohub,2013-01-20 13:31:00,
2013-01-20 09:32:00,81.0,69.3,29.94,West,270,11.0,13.0,69,0.00,,,0.02,meteohub,2013-01-20 13:32:00,
2013-01-20 09:33:00,81.1,69.3,29.94,NW,315,9.0,13.0,69,0.00,,,0.02,meteohub,2013-01-20 13:33:00,
2013-01-20 09:36:00,81.5,69.3,29.94,West,270,9.0,13.0,67,0.00,,,0.02,meteohub,2013-01-20 13:36:00,
2013-01-20 09:37:00,81.5,69.3,29.94,West,270,9.0,13.0,67,0.00,,,0.02,meteohub,2013-01-20 13:37:00,
2013-01-20 09:42:00,81.5,68.9,29.94,NW,315,11.0,16.0,67,0.00,,,0.02,meteohub,2013-01-20 13:42:00,
2013-01-20 09:43:00,81.5,68.9,29.94,NW,315,11.0,15.0,67,0.00,,,0.02,meteohub,2013-01-20 13:43:00,
2013-01-20 09:44:00,81.7,68.9,29.94,NW,315,9.0,15.0,66,0.00,,,0.02,meteohub,2013-01-20 13:44:00,
2013-01-20 09:45:00,81.7,68.9,29.94,WNW,293,14.0,15.0,67,0.00,,,0.02,meteohub,2013-01-20 13:45:00,
2013-01-20 09:48:00,81.7,68.9,29.94,North,0,8.0,15.0,65,0.00,,,0.02,meteohub,2013-01-20 13:48:00,
2013-01-20 09:50:00,81.5,68.9,29.94,West,270,15.0,15.0,65,0.00,,,0.02,meteohub,2013-01-20 13:50:00,
2013-01-20 09:51:00,81.3,68.9,29.94,West,270,15.0,15.0,65,0.00,,,0.02,meteohub,2013-01-20 13:51:00,
2013-01-20 09:54:00,81.5,68.9,29.94,West,270,15.0,15.0,66,0.00,,,0.02,meteohub,2013-01-20 13:54:00,
2013-01-20 09:56:00,81.5,68.5,29.94,West,270,16.0,16.0,65,0.00,,,0.02,meteohub,2013-01-20 13:56:00,
2013-01-20 09:57:00,81.5,68.5,29.94,West,270,16.0,16.0,65,0.00,,,0.02,meteohub,2013-01-20 13:57:00,
2013-01-20 10:00:00,81.5,68.5,29.94,West,270,12.0,15.0,65,0.00,,,0.02,meteohub,2013-01-20 14:00:00,
2013-01-20 10:02:00,81.5,68.7,29.94,West,270,8.0,20.0,65,0.00,,,0.02,meteohub,2013-01-20 14:02:00,
2013-01-20 10:03:00,81.5,68.7,29.94,West,270,8.0,20.0,65,0.00,,,0.02,meteohub,2013-01-20 14:03:00,
2013-01-20 10:05:00,81.9,68.7,29.94,WSW,248,14.0,20.0,65,0.00,,,0.02,meteohub,2013-01-20 14:05:00,
2013-01-20 10:08:00,81.7,68.7,29.94,NW,315,14.0,20.0,66,0.00,,,0.02,meteohub,2013-01-20 14:08:00,
2013-01-20 10:09:00,81.7,68.7,29.95,West,270,16.0,20.0,65,0.00,,,0.02,meteohub,2013-01-20 14:09:00,
2013-01-20 10:10:00,81.7,68.7,29.95,NW,315,17.0,20.0,65,0.00,,,0.02,meteohub,2013-01-20 14:10:00,
2013-01-20 10:11:00,81.7,68.7,29.94,NW,315,17.0,20.0,65,0.00,,,0.02,meteohub,2013-01-20 14:11:00,
2013-01-20 10:14:00,81.5,68.7,29.94,WNW,293,12.0,20.0,65,0.00,,,0.02,meteohub,2013-01-20 14:14:00,
2013-01-20 10:15:00,81.9,68.7,29.94,West,270,11.0,20.0,65,0.00,,,0.02,meteohub,2013-01-20 14:15:00,
2013-01-20 10:16:00,81.9,68.7,29.94,West,270,13.0,17.0,65,0.00,,,0.02,meteohub,2013-01-20 14:16:00,
2013-01-20 10:17:00,82.0,68.7,29.95,NW,315,11.0,17.0,65,0.00,,,0.02,meteohub,2013-01-20 14:17:00,
2013-01-20 10:19:00,82.2,68.7,29.94,West,270,14.0,17.0,65,0.00,,,0.02,meteohub,2013-01-20 14:19:00,
2013-01-20 10:21:00,82.2,68.7,29.94,NW,315,10.0,17.0,64,0.00,,,0.02,meteohub,2013-01-20 14:21:00,
2013-01-20 10:22:00,82.2,68.9,29.94,West,270,12.0,17.0,65,0.00,,,0.02,meteohub,2013-01-20 14:22:00,
2013-01-20 10:24:00,82.4,68.4,29.95,NW,315,14.0,17.0,65,0.00,,,0.02,meteohub,2013-01-20 14:24:00,
2013-01-20 10:25:00,82.4,68.9,29.94,NW,315,11.0,17.0,65,0.00,,,0.02,meteohub,2013-01-20 14:25:00,
2013-01-20 10:27:00,82.4,68.5,29.94,SW,225,12.0,17.0,65,0.00,,,0.02,meteohub,2013-01-20 14:27:00,
2013-01-20 10:28:00,82.4,68.5,29.94,West,270,11.0,17.0,62,0.00,,,0.02,meteohub,2013-01-20 14:28:00,
2013-01-20 10:31:00,82.8,68.5,29.94,SW,225,10.0,16.0,63,0.00,,,0.02,meteohub,2013-01-20 14:31:00,
2013-01-20 10:32:00,82.8,68.5,29.94,SW,225,10.0,16.0,63,0.00,,,0.02,meteohub,2013-01-20 14:32:00,
2013-01-20 10:36:00,83.3,68.5,29.94,WSW,248,15.0,15.0,61,0.00,,,0.02,meteohub,2013-01-20 14:36:00,
2013-01-20 10:37:00,83.3,68.5,29.94,NW,315,13.0,15.0,62,0.00,,,0.02,meteohub,2013-01-20 14:37:00,
2013-01-20 10:40:00,82.9,68.5,29.94,West,270,17.0,17.0,63,0.00,,,0.02,meteohub,2013-01-20 14:40:00,
2013-01-20 10:42:00,82.8,68.5,29.94,West,270,17.0,17.0,62,0.00,,,0.02,meteohub,2013-01-20 14:42:00,
2013-01-20 10:43:00,82.6,68.2,29.94,SW,225,15.0,17.0,62,0.00,,,0.02,meteohub,2013-01-20 14:43:00,
2013-01-20 10:45:00,82.4,68.2,29.94,SSW,203,15.0,17.0,62,0.00,,,0.02,meteohub,2013-01-20 14:45:00,
2013-01-20 10:48:00,82.4,68.2,29.94,West,270,14.0,17.0,64,0.00,,,0.02,meteohub,2013-01-20 14:48:00,
2013-01-20 10:49:00,82.4,68.2,29.94,West,270,15.0,17.0,63,0.00,,,0.02,meteohub,2013-01-20 14:49:00,
2013-01-20 10:50:00,82.6,68.2,29.94,West,270,10.0,17.0,64,0.00,,,0.02,meteohub,2013-01-20 14:50:00,
2013-01-20 10:54:00,83.1,68.2,29.94,NW,315,7.0,17.0,60,0.00,,,0.02,meteohub,2013-01-20 14:54:00,
2013-01-20 10:55:00,83.3,68.2,29.94,West,270,11.0,17.0,60,0.00,,,0.02,meteohub,2013-01-20 14:55:00,
2013-01-20 10:57:00,83.5,68.2,29.94,West,270,11.0,17.0,59,0.00,,,0.02,meteohub,2013-01-20 14:57:00,
2013-01-20 10:59:00,83.7,68.4,29.94,SW,225,16.0,17.0,60,0.00,,,0.02,meteohub,2013-01-20 14:59:00,
2013-01-20 11:00:00,83.5,68.4,29.94,NW,315,11.0,16.0,58,0.00,,,0.02,meteohub,2013-01-20 15:00:00,
2013-01-20 11:01:00,83.3,68.4,29.94,WSW,248,16.0,16.0,59,0.00,,,0.02,meteohub,2013-01-20 15:01:00,
2013-01-20 11:02:00,83.3,68.4,29.94,WSW,248,17.0,17.0,60,0.00,,,0.02,meteohub,2013-01-20 15:02:00,
2013-01-20 11:04:00,82.9,68.0,29.94,West,270,16.0,16.0,63,0.00,,,0.02,meteohub,2013-01-20 15:04:00,
2013-01-20 11:06:00,82.9,68.0,29.94,West,270,15.0,17.0,64,0.00,,,0.02,meteohub,2013-01-20 15:06:00,
2013-01-20 11:08:00,82.9,68.4,29.94,NW,315,13.0,17.0,62,0.00,,,0.02,meteohub,2013-01-20 15:08:00,
2013-01-20 11:09:00,82.9,68.4,29.94,SW,225,14.0,17.0,61,0.00,,,0.02,meteohub,2013-01-20 15:09:00,
2013-01-20 11:12:00,82.8,68.0,29.94,NW,315,17.0,18.0,62,0.00,,,0.02,meteohub,2013-01-20 15:12:00,
2013-01-20 11:14:00,82.8,68.0,29.94,South,180,15.0,18.0,58,0.00,,,0.02,meteohub,2013-01-20 15:14:00,
2013-01-20 11:17:00,83.1,68.0,29.94,SW,225,15.0,18.0,61,0.00,,,0.02,meteohub,2013-01-20 15:17:00,
2013-01-20 11:18:00,83.3,68.0,29.94,NW,315,13.0,18.0,61,0.00,,,0.02,meteohub,2013-01-20 15:18:00,
2013-01-20 11:21:00,83.1,68.2,29.94,NE,45,12.0,18.0,62,0.00,,,0.02,meteohub,2013-01-20 15:21:00,
2013-01-20 11:22:00,83.1,68.2,29.94,NW,315,11.0,18.0,63,0.00,,,0.02,meteohub,2013-01-20 15:22:00,
2013-01-20 11:23:00,83.3,68.2,29.94,SW,225,12.0,18.0,64,0.00,,,0.02,meteohub,2013-01-20 15:23:00,
2013-01-20 11:27:00,83.3,68.2,29.94,NW,315,16.0,17.0,64,0.00,,,0.02,meteohub,2013-01-20 15:27:00,
2013-01-20 11:28:00,83.1,68.2,29.94,NNW,338,11.0,17.0,63,0.00,,,0.02,meteohub,2013-01-20 15:28:00,
2013-01-20 11:32:00,82.9,68.5,29.94,North,0,15.0,18.0,65,0.00,,,0.02,meteohub,2013-01-20 15:32:00,
2013-01-20 11:33:00,82.8,68.5,29.94,WSW,248,18.0,18.0,66,0.00,,,0.02,meteohub,2013-01-20 15:33:00,
2013-01-20 11:34:00,82.4,68.5,29.93,West,270,11.0,18.0,67,0.00,,,0.02,meteohub,2013-01-20 15:34:00,
2013-01-20 11:35:00,82.2,68.5,29.93,SW,225,13.0,21.0,69,0.00,,,0.02,meteohub,2013-01-20 15:35:00,
2013-01-20 11:38:00,82.4,68.9,29.93,NW,315,12.0,21.0,67,0.00,,,0.02,meteohub,2013-01-20 15:38:00,
2013-01-20 11:39:00,82.4,68.9,29.93,NW,315,15.0,21.0,67,0.00,,,0.02,meteohub,2013-01-20 15:39:00,
2013-01-20 11:40:00,82.2,68.9,29.93,NW,315,15.0,21.0,68,0.00,,,0.02,meteohub,2013-01-20 15:40:00,
2013-01-20 11:42:00,82.6,68.9,29.93,SW,225,12.0,21.0,65,0.00,,,0.02,meteohub,2013-01-20 15:42:00,
2013-01-20 11:44:00,82.6,68.9,29.93,West,270,13.0,21.0,65,0.00,,,0.02,meteohub,2013-01-20 15:44:00,
2013-01-20 11:45:00,82.6,68.9,29.93,West,270,15.0,21.0,65,0.00,,,0.02,meteohub,2013-01-20 15:45:00,
2013-01-20 11:47:00,82.6,68.9,29.93,West,270,11.0,21.0,65,0.00,,,0.02,meteohub,2013-01-20 15:47:00,
2013-01-20 11:49:00,82.9,69.1,29.92,NW,315,15.0,21.0,64,0.00,,,0.02,meteohub,2013-01-20 15:49:00,
2013-01-20 11:51:00,82.8,68.7,29.93,SW,225,17.0,21.0,64,0.00,,,0.02,meteohub,2013-01-20 15:51:00,
2013-01-20 11:52:00,82.8,68.7,29.92,NW,315,16.0,21.0,64,0.00,,,0.02,meteohub,2013-01-20 15:52:00,
2013-01-20 11:56:00,81.7,68.7,29.92,West,270,13.0,23.0,66,0.00,,,0.02,meteohub,2013-01-20 15:56:00,
2013-01-20 11:58:00,81.9,68.7,29.93,NW,315,10.0,23.0,67,0.00,,,0.02,meteohub,2013-01-20 15:58:00,
2013-01-20 11:59:00,82.4,68.7,29.92,West,270,12.0,23.0,66,0.00,,,0.02,meteohub,2013-01-20 15:59:00,
2013-01-20 12:01:00,82.6,68.7,29.92,West,270,17.0,23.0,63,0.00,,,0.02,meteohub,2013-01-20 16:01:00,
2013-01-20 12:03:00,82.6,68.7,29.92,West,270,17.0,23.0,62,0.00,,,0.02,meteohub,2013-01-20 16:03:00,
2013-01-20 12:04:00,82.6,68.7,29.92,West,270,17.0,23.0,61,0.00,,,0.02,meteohub,2013-01-20 16:04:00,
2013-01-20 12:05:00,82.4,68.7,29.92,NW,315,12.0,23.0,61,0.00,,,0.02,meteohub,2013-01-20 16:05:00,
2013-01-20 12:09:00,82.9,68.4,29.92,NW,315,14.0,23.0,61,0.00,,,0.02,meteohub,2013-01-20 16:09:00,
2013-01-20 12:10:00,82.9,68.4,29.92,NW,315,14.0,23.0,61,0.00,,,0.02,meteohub,2013-01-20 16:10:00,
2013-01-20 12:12:00,82.4,66.6,29.91,SW,225,11.0,17.0,56,0.00,,,0.02,meteohub,2013-01-20 16:12:00,
2013-01-20 12:15:00,82.4,66.2,29.91,WSW,248,14.0,21.0,56,0.00,,,0.02,meteohub,2013-01-20 16:15:00,
2013-01-20 12:16:00,82.4,66.2,29.92,WSW,248,14.0,21.0,56,0.00,,,0.02,meteohub,2013-01-20 16:16:00,
2013-01-20 12:17:00,82.8,66.2,29.91,SW,225,13.0,21.0,57,0.00,,,0.02,meteohub,2013-01-20 16:17:00,
2013-01-20 12:21:00,83.7,65.8,29.91,WNW,293,11.0,21.0,56,0.00,,,0.02,meteohub,2013-01-20 16:21:00,
2013-01-20 12:22:00,83.7,65.8,29.91,WNW,293,11.0,21.0,56,0.00,,,0.02,meteohub,2013-01-20 16:22:00,
2013-01-20 12:23:00,83.7,65.8,29.91,WNW,293,11.0,21.0,56,0.00,,,0.02,meteohub,2013-01-20 16:23:00,
2013-01-20 12:27:00,83.7,65.1,29.91,NW,315,13.0,21.0,52,0.00,,,0.02,meteohub,2013-01-20 16:27:00,
2013-01-20 12:28:00,83.7,64.8,29.91,North,0,11.0,21.0,54,0.00,,,0.02,meteohub,2013-01-20 16:28:00,
2013-01-20 12:29:00,83.7,65.3,29.90,NW,315,8.0,21.0,53,0.00,,,0.02,meteohub,2013-01-20 16:29:00,
2013-01-20 12:33:00,83.7,66.2,29.90,North,0,14.0,14.0,58,0.00,,,0.02,meteohub,2013-01-20 16:33:00,
2013-01-20 12:34:00,83.7,66.4,29.90,NW,315,12.0,14.0,55,0.00,,,0.02,meteohub,2013-01-20 16:34:00,
2013-01-20 12:35:00,83.7,66.0,29.90,North,0,15.0,15.0,55,0.00,,,0.02,meteohub,2013-01-20 16:35:00,
2013-01-20 12:37:00,83.7,64.6,29.90,West,270,10.0,18.0,52,0.00,,,0.02,meteohub,2013-01-20 16:37:00,
2013-01-20 12:40:00,84.2,64.6,29.89,West,270,11.0,18.0,53,0.00,,,0.02,meteohub,2013-01-20 16:40:00,
2013-01-20 12:42:00,84.6,65.1,29.89,West,270,8.0,18.0,53,0.00,,,0.02,meteohub,2013-01-20 16:42:00,
2013-01-20 12:44:00,85.1,64.8,29.89,NW,315,11.0,18.0,50,0.00,,,0.02,meteohub,2013-01-20 16:44:00,
2013-01-20 12:46:00,85.1,63.9,29.89,SW,225,8.0,18.0,49,0.00,,,0.02,meteohub,2013-01-20 16:46:00,
2013-01-20 12:47:00,85.5,64.2,29.89,South,180,12.0,18.0,52,0.00,,,0.02,meteohub,2013-01-20 16:47:00,
2013-01-20 12:49:00,85.8,65.5,29.89,SW,225,17.0,18.0,51,0.00,,,0.02,meteohub,2013-01-20 16:49:00,
2013-01-20 12:50:00,85.8,65.5,29.89,SW,225,17.0,18.0,51,0.00,,,0.02,meteohub,2013-01-20 16:50:00,
2013-01-20 12:52:00,85.6,65.1,29.89,NW,315,15.0,19.0,51,0.00,,,0.02,meteohub,2013-01-20 16:52:00,
2013-01-20 12:54:00,85.5,65.1,29.89,SW,225,17.0,19.0,51,0.00,,,0.02,meteohub,2013-01-20 16:54:00,
2013-01-20 12:56:00,84.9,65.1,29.89,NW,315,13.0,19.0,52,0.00,,,0.02,meteohub,2013-01-20 16:56:00,
2013-01-20 12:57:00,84.7,64.8,29.89,SSW,203,14.0,19.0,53,0.00,,,0.02,meteohub,2013-01-20 16:57:00,
2013-01-20 12:59:00,84.9,65.3,29.89,SW,225,17.0,19.0,53,0.00,,,0.02,meteohub,2013-01-20 16:59:00,
2013-01-20 13:01:00,84.9,64.8,29.89,NW,315,17.0,19.0,51,0.00,,,0.02,meteohub,2013-01-20 17:01:00,
2013-01-20 13:03:00,84.6,64.8,29.89,SW,225,18.0,19.0,52,0.00,,,0.02,meteohub,2013-01-20 17:03:00,
2013-01-20 13:06:00,84.2,65.8,29.88,SW,225,14.0,19.0,54,0.00,,,0.02,meteohub,2013-01-20 17:06:00,
2013-01-20 13:07:00,84.2,65.8,29.88,SW,225,19.0,19.0,55,0.00,,,0.02,meteohub,2013-01-20 17:07:00,
2013-01-20 13:08:00,84.2,65.8,29.89,SW,225,17.0,19.0,55,0.00,,,0.02,meteohub,2013-01-20 17:08:00,
2013-01-20 13:12:00,84.0,66.4,29.88,NW,315,17.0,19.0,56,0.00,,,0.02,meteohub,2013-01-20 17:12:00,
2013-01-20 13:14:00,83.7,66.9,29.88,NW,315,10.0,19.0,57,0.00,,,0.02,meteohub,2013-01-20 17:14:00,
2013-01-20 13:15:00,84.2,67.5,29.88,SW,225,11.0,21.0,57,0.00,,,0.02,meteohub,2013-01-20 17:15:00,
2013-01-20 13:18:00,84.6,66.9,29.88,WNW,293,22.0,22.0,56,0.00,,,0.02,meteohub,2013-01-20 17:18:00,
2013-01-20 13:19:00,84.0,66.9,29.88,NW,315,17.0,21.0,57,0.00,,,0.02,meteohub,2013-01-20 17:19:00,
2013-01-20 13:20:00,83.7,66.9,29.88,SW,225,14.0,22.0,57,0.00,,,0.02,meteohub,2013-01-20 17:20:00,
2013-01-20 13:22:00,83.7,67.5,29.88,SW,225,15.0,22.0,58,0.00,,,0.02,meteohub,2013-01-20 17:22:00,
2013-01-20 13:24:00,83.7,67.5,29.88,West,270,15.0,22.0,59,0.00,,,0.02,meteohub,2013-01-20 17:24:00,
2013-01-20 13:25:00,83.5,67.8,29.88,West,270,18.0,22.0,60,0.00,,,0.02,meteohub,2013-01-20 17:25:00,
2013-01-20 13:29:00,82.0,67.8,29.88,NW,315,17.0,22.0,64,0.00,,,0.02,meteohub,2013-01-20 17:29:00,
2013-01-20 13:30:00,81.9,67.6,29.88,West,270,15.0,22.0,64,0.00,,,0.02,meteohub,2013-01-20 17:30:00,
2013-01-20 13:33:00,81.9,68.2,29.88,SW,225,17.0,22.0,66,0.00,,,0.02,meteohub,2013-01-20 17:33:00,
2013-01-20 13:36:00,82.8,68.5,29.88,NW,315,17.0,21.0,66,0.00,,,0.02,meteohub,2013-01-20 17:36:00,
2013-01-20 13:37:00,82.8,68.9,29.87,West,270,17.0,21.0,66,0.00,,,0.02,meteohub,2013-01-20 17:37:00,
2013-01-20 13:39:00,82.9,68.9,29.87,SW,225,17.0,21.0,65,0.00,,,0.02,meteohub,2013-01-20 17:39:00,
2013-01-20 13:42:00,82.9,69.4,29.87,NW,315,17.0,18.0,67,0.00,,,0.02,meteohub,2013-01-20 17:42:00,
2013-01-20 13:44:00,82.8,69.4,29.87,West,270,18.0,18.0,67,0.00,,,0.02,meteohub,2013-01-20 17:44:00,
2013-01-20 13:45:00,82.4,69.4,29.87,NW,315,18.0,18.0,67,0.00,,,0.02,meteohub,2013-01-20 17:45:00,
2013-01-20 13:46:00,82.2,69.4,29.87,SW,225,16.0,18.0,68,0.00,,,0.02,meteohub,2013-01-20 17:46:00,
2013-01-20 13:47:00,82.0,69.4,29.87,SW,225,16.0,18.0,69,0.00,,,0.02,meteohub,2013-01-20 17:47:00,
2013-01-20 13:51:00,82.2,69.6,29.87,West,270,15.0,19.0,70,0.00,,,0.02,meteohub,2013-01-20 17:51:00,
2013-01-20 13:52:00,82.2,69.6,29.87,SW,225,14.0,19.0,70,0.00,,,0.02,meteohub,2013-01-20 17:52:00,
2013-01-20 13:53:00,82.4,69.6,29.87,NW,315,15.0,19.0,68,0.00,,,0.02,meteohub,2013-01-20 17:53:00,
2013-01-20 13:56:00,81.7,69.4,29.86,SW,225,14.0,19.0,69,0.00,,,0.02,meteohub,2013-01-20 17:56:00,
2013-01-20 13:57:00,81.7,69.4,29.86,SW,225,14.0,19.0,69,0.00,,,0.02,meteohub,2013-01-20 17:57:00,
2013-01-20 13:59:00,82.0,69.4,29.86,SW,225,16.0,19.0,68,0.00,,,0.02,meteohub,2013-01-20 17:59:00,
2013-01-20 14:02:00,82.2,69.4,29.86,NW,315,15.0,19.0,68,0.00,,,0.02,meteohub,2013-01-20 18:02:00,
2013-01-20 14:03:00,82.2,69.4,29.86,NW,315,15.0,19.0,68,0.00,,,0.02,meteohub,2013-01-20 18:03:00,
2013-01-20 14:04:00,82.6,69.4,29.86,NW,315,19.0,19.0,68,0.00,,,0.02,meteohub,2013-01-20 18:04:00,
2013-01-20 14:07:00,82.6,69.4,29.86,SW,225,17.0,18.0,68,0.00,,,0.02,meteohub,2013-01-20 18:07:00,
2013-01-20 14:09:00,82.9,69.4,29.86,WSW,248,15.0,18.0,67,0.00,,,0.02,meteohub,2013-01-20 18:09:00,
2013-01-20 14:10:00,82.9,69.4,29.86,West,270,17.0,18.0,66,0.00,,,0.02,meteohub,2013-01-20 18:10:00,
2013-01-20 14:13:00,82.9,69.6,29.86,SW,225,15.0,19.0,66,0.00,,,0.02,meteohub,2013-01-20 18:13:00,
2013-01-20 14:14:00,82.8,69.6,29.86,SW,225,17.0,19.0,66,0.00,,,0.02,meteohub,2013-01-20 18:14:00,
2013-01-20 14:15:00,82.6,69.6,29.86,NW,315,15.0,19.0,66,0.00,,,0.02,meteohub,2013-01-20 18:15:00,
2013-01-20 14:18:00,82.0,69.3,29.86,WSW,248,14.0,19.0,68,0.00,,,0.02,meteohub,2013-01-20 18:18:00,
2013-01-20 14:19:00,81.9,69.1,29.85,SW,225,18.0,19.0,68,0.00,,,0.02,meteohub,2013-01-20 18:19:00,
2013-01-20 14:20:00,81.7,69.1,29.86,SW,225,14.0,18.0,68,0.00,,,0.02,meteohub,2013-01-20 18:20:00,
2013-01-20 14:23:00,81.7,69.1,29.85,West,270,9.0,18.0,69,0.00,,,0.02,meteohub,2013-01-20 18:23:00,
2013-01-20 14:26:00,81.7,69.4,29.86,SW,225,14.0,18.0,70,0.00,,,0.02,meteohub,2013-01-20 18:26:00,
2013-01-20 14:27:00,81.7,69.4,29.86,West,270,17.0,18.0,69,0.00,,,0.02,meteohub,2013-01-20 18:27:00,
2013-01-20 14:28:00,81.5,69.4,29.85,SW,225,11.0,18.0,70,0.00,,,0.02,meteohub,2013-01-20 18:28:00,
2013-01-20 14:29:00,81.3,69.3,29.85,SW,225,11.0,18.0,70,0.00,,,0.02,meteohub,2013-01-20 18:29:00,
2013-01-20 14:31:00,81.3,69.3,29.85,SE,135,17.0,18.0,71,0.00,,,0.02,meteohub,2013-01-20 18:31:00,
2013-01-20 14:34:00,81.3,69.8,29.85,South,180,13.0,18.0,71,0.00,,,0.02,meteohub,2013-01-20 18:34:00,
2013-01-20 14:36:00,81.3,69.1,29.84,West,270,15.0,17.0,71,0.00,,,0.02,meteohub,2013-01-20 18:36:00,
2013-01-20 14:40:00,81.3,68.7,29.85,West,270,15.0,17.0,69,0.00,,,0.02,meteohub,2013-01-20 18:40:00,
2013-01-20 14:41:00,81.3,68.5,29.84,NW,315,15.0,17.0,66,0.00,,,0.02,meteohub,2013-01-20 18:41:00,
2013-01-20 14:42:00,81.3,68.5,29.84,NW,315,15.0,17.0,66,0.00,,,0.02,meteohub,2013-01-20 18:42:00,
2013-01-20 14:44:00,81.3,68.0,29.85,West,270,11.0,17.0,66,0.00,,,0.02,meteohub,2013-01-20 18:44:00,
2013-01-20 14:46:00,81.5,67.6,29.84,SW,225,18.0,18.0,65,0.00,,,0.02,meteohub,2013-01-20 18:46:00,
2013-01-20 14:48:00,81.3,67.1,29.84,SW,225,17.0,17.0,63,0.00,,,0.02,meteohub,2013-01-20 18:48:00,
2013-01-20 14:49:00,81.3,67.1,29.85,NW,315,15.0,17.0,63,0.00,,,0.02,meteohub,2013-01-20 18:49:00,
2013-01-20 14:51:00,81.3,67.1,29.85,NW,315,17.0,18.0,63,0.00,,,0.02,meteohub,2013-01-20 18:51:00,
2013-01-20 14:52:00,81.3,67.1,29.85,WSW,248,15.0,18.0,63,0.00,,,0.02,meteohub,2013-01-20 18:52:00,
2013-01-20 14:56:00,81.3,66.7,29.85,West,270,13.0,19.0,63,0.00,,,0.02,meteohub,2013-01-20 18:56:00,
2013-01-20 14:57:00,81.3,66.7,29.85,West,270,13.0,19.0,63,0.00,,,0.02,meteohub,2013-01-20 18:57:00,
2013-01-20 15:02:00,81.7,66.7,29.84,NW,315,15.0,19.0,63,0.00,,,0.02,meteohub,2013-01-20 19:02:00,
2013-01-20 15:03:00,81.9,66.7,29.84,West,270,14.0,19.0,63,0.00,,,0.02,meteohub,2013-01-20 19:03:00,
2013-01-20 15:07:00,82.8,67.3,29.84,SW,225,12.0,19.0,62,0.00,,,0.02,meteohub,2013-01-20 19:07:00,
2013-01-20 15:09:00,83.3,67.5,29.84,West,270,10.0,19.0,61,0.00,,,0.02,meteohub,2013-01-20 19:09:00,
2013-01-20 15:10:00,83.5,67.5,29.84,SW,225,15.0,19.0,60,0.00,,,0.02,meteohub,2013-01-20 19:10:00,
2013-01-20 15:12:00,83.7,67.6,29.84,SW,225,18.0,18.0,60,0.00,,,0.02,meteohub,2013-01-20 19:12:00,
2013-01-20 15:15:00,83.7,67.3,29.84,SW,225,17.0,18.0,60,0.00,,,0.02,meteohub,2013-01-20 19:15:00,
2013-01-20 15:16:00,83.7,67.3,29.84,NW,315,11.0,18.0,60,0.00,,,0.02,meteohub,2013-01-20 19:16:00,
2013-01-20 15:17:00,83.7,67.5,29.84,SW,225,9.0,18.0,60,0.00,,,0.02,meteohub,2013-01-20 19:17:00,
2013-01-20 15:20:00,84.0,67.5,29.84,West,270,15.0,18.0,60,0.00,,,0.02,meteohub,2013-01-20 19:20:00,
2013-01-20 15:21:00,84.0,67.5,29.83,SW,225,15.0,18.0,59,0.00,,,0.02,meteohub,2013-01-20 19:21:00,
2013-01-20 15:22:00,83.7,67.5,29.84,SW,225,10.0,18.0,60,0.00,,,0.02,meteohub,2013-01-20 19:22:00,
2013-01-20 15:23:00,83.7,67.6,29.83,SW,225,16.0,18.0,61,0.00,,,0.02,meteohub,2013-01-20 19:23:00,
2013-01-20 15:25:00,83.5,68.0,29.84,SW,225,15.0,18.0,61,0.00,,,0.02,meteohub,2013-01-20 19:25:00,
2013-01-20 15:26:00,83.5,68.0,29.84,SW,225,15.0,18.0,61,0.00,,,0.02,meteohub,2013-01-20 19:26:00,
2013-01-20 15:31:00,83.1,67.6,29.84,NW,315,12.0,19.0,61,0.00,,,0.02,meteohub,2013-01-20 19:31:00,
2013-01-20 15:32:00,83.3,67.6,29.83,West,270,11.0,19.0,62,0.00,,,0.02,meteohub,2013-01-20 19:32:00,
2013-01-20 15:37:00,82.9,67.6,29.84,NW,315,15.0,19.0,61,0.00,,,0.02,meteohub,2013-01-20 19:37:00,
2013-01-20 15:38:00,83.1,67.6,29.84,West,270,12.0,19.0,61,0.00,,,0.02,meteohub,2013-01-20 19:38:00,
2013-01-20 15:39:00,83.1,67.6,29.83,SW,225,12.0,19.0,61,0.00,,,0.02,meteohub,2013-01-20 19:39:00,
2013-01-20 15:42:00,82.9,67.6,29.83,West,270,15.0,19.0,62,0.00,,,0.02,meteohub,2013-01-20 19:42:00,
2013-01-20 15:44:00,82.9,67.6,29.84,South,180,8.0,19.0,62,0.00,,,0.02,meteohub,2013-01-20 19:44:00,
2013-01-20 15:46:00,83.3,67.6,29.84,West,270,10.0,16.0,60,0.00,,,0.02,meteohub,2013-01-20 19:46:00,
2013-01-20 15:48:00,83.1,67.6,29.84,SW,225,12.0,16.0,61,0.00,,,0.02,meteohub,2013-01-20 19:48:00,
2013-01-20 15:49:00,83.1,67.6,29.84,NW,315,10.0,16.0,61,0.00,,,0.02,meteohub,2013-01-20 19:49:00,
2013-01-20 15:50:00,83.1,67.6,29.84,West,270,16.0,16.0,61,0.00,,,0.02,meteohub,2013-01-20 19:50:00,
2013-01-20 15:52:00,82.9,67.6,29.83,West,270,13.0,16.0,61,0.00,,,0.02,meteohub,2013-01-20 19:52:00,
2013-01-20 15:53:00,82.8,67.6,29.83,West,270,12.0,16.0,61,0.00,,,0.02,meteohub,2013-01-20 19:53:00,
2013-01-20 15:54:00,82.9,67.6,29.84,West,270,15.0,16.0,61,0.00,,,0.02,meteohub,2013-01-20 19:54:00,
2013-01-20 15:56:00,82.8,67.3,29.83,West,270,11.0,16.0,61,0.00,,,0.02,meteohub,2013-01-20 19:56:00,
2013-01-20 15:58:00,82.8,67.6,29.84,West,270,11.0,16.0,62,0.00,,,0.02,meteohub,2013-01-20 19:58:00,
2013-01-20 15:59:00,82.8,67.6,29.84,South,180,14.0,16.0,62,0.00,,,0.02,meteohub,2013-01-20 19:59:00,
2013-01-20 16:01:00,82.8,67.6,29.84,SSE,158,13.0,16.0,62,0.00,,,0.02,meteohub,2013-01-20 20:01:00,
2013-01-20 16:03:00,82.8,67.6,29.84,SW,225,8.0,16.0,64,0.00,,,0.02,meteohub,2013-01-20 20:03:00,
2013-01-20 16:05:00,83.1,68.2,29.84,SW,225,8.0,16.0,64,0.00,,,0.02,meteohub,2013-01-20 20:05:00,
2013-01-20 16:06:00,83.3,68.2,29.84,South,180,13.0,15.0,64,0.00,,,0.02,meteohub,2013-01-20 20:06:00,
2013-01-20 16:11:00,83.3,68.7,29.84,WSW,248,18.0,18.0,64,0.00,,,0.02,meteohub,2013-01-20 20:11:00,
2013-01-20 16:12:00,83.1,68.7,29.84,WSW,248,12.0,15.0,64,0.00,,,0.02,meteohub,2013-01-20 20:12:00,
2013-01-20 16:17:00,82.2,67.6,29.84,South,180,14.0,18.0,63,0.00,,,0.02,meteohub,2013-01-20 20:17:00,
2013-01-20 16:19:00,82.6,68.0,29.84,South,180,14.0,18.0,65,0.00,,,0.02,meteohub,2013-01-20 20:19:00,
2013-01-20 16:20:00,82.6,68.0,29.84,NW,315,10.0,18.0,65,0.00,,,0.02,meteohub,2013-01-20 20:20:00,
2013-01-20 16:23:00,82.8,68.5,29.84,NW,315,13.0,18.0,65,0.00,,,0.02,meteohub,2013-01-20 20:23:00,
2013-01-20 16:26:00,82.4,68.5,29.84,SW,225,15.0,18.0,66,0.00,,,0.02,meteohub,2013-01-20 20:26:00,
2013-01-20 16:28:00,82.4,68.5,29.84,SW,225,10.0,18.0,66,0.00,,,0.02,meteohub,2013-01-20 20:28:00,
2013-01-20 16:29:00,82.2,68.5,29.84,SW,225,11.0,18.0,66,0.00,,,0.02,meteohub,2013-01-20 20:29:00,
2013-01-20 16:31:00,82.4,68.5,29.84,West,270,11.0,17.0,65,0.00,,,0.02,meteohub,2013-01-20 20:31:00,
2013-01-20 16:34:00,82.4,68.5,29.84,West,270,14.0,17.0,65,0.00,,,0.02,meteohub,2013-01-20 20:34:00,
2013-01-20 16:35:00,82.2,68.5,29.84,WSW,248,15.0,17.0,65,0.00,,,0.02,meteohub,2013-01-20 20:35:00,
2013-01-20 16:37:00,82.0,68.5,29.84,SSW,203,8.0,17.0,65,0.00,,,0.02,meteohub,2013-01-20 20:37:00,
2013-01-20 16:40:00,82.0,68.0,29.84,NW,315,17.0,17.0,65,0.00,,,0.02,meteohub,2013-01-20 20:40:00,
2013-01-20 16:41:00,82.0,68.0,29.84,NW,315,17.0,17.0,65,0.00,,,0.02,meteohub,2013-01-20 20:41:00,
2013-01-20 16:42:00,82.0,68.5,29.84,West,270,17.0,17.0,65,0.00,,,0.02,meteohub,2013-01-20 20:42:00,
2013-01-20 16:43:00,82.0,67.8,29.84,SW,225,13.0,17.0,65,0.00,,,0.02,meteohub,2013-01-20 20:43:00,
2013-01-20 16:46:00,81.7,67.8,29.84,West,270,12.0,17.0,66,0.00,,,0.02,meteohub,2013-01-20 20:46:00,
2013-01-20 16:47:00,81.7,68.4,29.84,West,270,7.0,17.0,66,0.00,,,0.02,meteohub,2013-01-20 20:47:00,
2013-01-20 16:48:00,81.7,68.4,29.84,WSW,248,8.0,17.0,67,0.00,,,0.02,meteohub,2013-01-20 20:48:00,
2013-01-20 16:50:00,81.5,68.4,29.84,SW,225,6.0,17.0,67,0.00,,,0.02,meteohub,2013-01-20 20:50:00,
2013-01-20 16:52:00,81.3,68.4,29.84,SW,225,8.0,17.0,67,0.00,,,0.02,meteohub,2013-01-20 20:52:00,
2013-01-20 16:55:00,81.1,68.2,29.84,SW,225,11.0,17.0,67,0.00,,,0.02,meteohub,2013-01-20 20:55:00,
2013-01-20 16:57:00,80.8,68.2,29.84,SW,225,10.0,17.0,67,0.00,,,0.02,meteohub,2013-01-20 20:57:00,
2013-01-20 16:58:00,80.8,68.2,29.84,WNW,293,14.0,17.0,67,0.00,,,0.02,meteohub,2013-01-20 20:58:00,
2013-01-20 17:01:00,80.8,68.2,29.84,NW,315,12.0,15.0,67,0.00,,,0.02,meteohub,2013-01-20 21:01:00,
2013-01-20 17:02:00,80.4,68.0,29.85,West,270,8.0,15.0,68,0.00,,,0.02,meteohub,2013-01-20 21:02:00,
2013-01-20 17:05:00,80.1,68.0,29.85,WNW,293,8.0,15.0,69,0.00,,,0.02,meteohub,2013-01-20 21:05:00,
2013-01-20 17:06:00,79.9,68.0,29.85,West,270,13.0,15.0,69,0.00,,,0.02,meteohub,2013-01-20 21:06:00,
2013-01-20 17:07:00,79.7,68.0,29.85,SW,225,9.0,15.0,69,0.00,,,0.02,meteohub,2013-01-20 21:07:00,
2013-01-20 17:10:00,79.5,67.8,29.85,NW,315,16.0,16.0,70,0.00,,,0.02,meteohub,2013-01-20 21:10:00,
2013-01-20 17:11:00,79.3,67.6,29.85,WSW,248,10.0,15.0,70,0.00,,,0.02,meteohub,2013-01-20 21:11:00,
2013-01-20 17:12:00,79.3,67.6,29.85,South,180,8.0,15.0,70,0.00,,,0.02,meteohub,2013-01-20 21:12:00,
2013-01-20 17:15:00,79.3,67.6,29.85,North,0,10.0,15.0,71,0.00,,,0.02,meteohub,2013-01-20 21:15:00,
2013-01-20 17:17:00,79.2,67.5,29.85,SW,225,9.0,16.0,71,0.00,,,0.02,meteohub,2013-01-20 21:17:00,
2013-01-20 17:19:00,79.2,67.6,29.85,West,270,11.0,16.0,70,0.00,,,0.02,meteohub,2013-01-20 21:19:00,
2013-01-20 17:23:00,79.2,66.9,29.86,West,270,16.0,16.0,70,0.00,,,0.02,meteohub,2013-01-20 21:23:00,
2013-01-20 17:24:00,79.2,66.9,29.85,West,270,14.0,16.0,70,0.00,,,0.02,meteohub,2013-01-20 21:24:00,
2013-01-20 17:26:00,79.0,67.3,29.86,SW,225,11.0,16.0,71,0.00,,,0.02,meteohub,2013-01-20 21:26:00,
2013-01-20 17:27:00,79.0,67.3,29.85,West,270,9.0,16.0,71,0.00,,,0.02,meteohub,2013-01-20 21:27:00,
2013-01-20 17:29:00,79.0,67.3,29.86,SW,225,12.0,16.0,72,0.00,,,0.02,meteohub,2013-01-20 21:29:00,
2013-01-20 17:32:00,79.0,67.3,29.86,West,270,8.0,16.0,72,0.00,,,0.02,meteohub,2013-01-20 21:32:00,
2013-01-20 17:35:00,79.0,67.8,29.86,West,270,9.0,16.0,72,0.00,,,0.02,meteohub,2013-01-20 21:35:00,
2013-01-20 17:36:00,79.0,67.8,29.86,SW,225,7.0,16.0,72,0.00,,,0.02,meteohub,2013-01-20 21:36:00,
2013-01-20 17:40:00,78.8,68.0,29.86,SW,225,8.0,16.0,72,0.00,,,0.02,meteohub,2013-01-20 21:40:00,
2013-01-20 17:41:00,78.6,68.0,29.85,WNW,293,8.0,12.0,74,0.00,,,0.02,meteohub,2013-01-20 21:41:00,
2013-01-20 17:43:00,78.6,68.0,29.85,West,270,10.0,12.0,74,0.00,,,0.02,meteohub,2013-01-20 21:43:00,
2013-01-20 17:45:00,78.4,68.0,29.85,NW,315,11.0,12.0,74,0.00,,,0.02,meteohub,2013-01-20 21:45:00,
2013-01-20 17:46:00,78.4,68.0,29.86,WSW,248,12.0,12.0,74,0.00,,,0.02,meteohub,2013-01-20 21:46:00,
2013-01-20 17:47:00,78.4,68.5,29.85,SW,225,8.0,11.0,75,0.00,,,0.02,meteohub,2013-01-20 21:47:00,
2013-01-20 17:48:00,78.4,68.5,29.85,West,270,10.0,11.0,75,0.00,,,0.02,meteohub,2013-01-20 21:48:00,
2013-01-20 17:52:00,78.3,68.4,29.85,South,180,8.0,12.0,75,0.00,,,0.02,meteohub,2013-01-20 21:52:00,
2013-01-20 17:53:00,78.3,68.4,29.85,West,270,8.0,12.0,75,0.00,,,0.02,meteohub,2013-01-20 21:53:00,
2013-01-20 17:54:00,78.3,68.4,29.85,West,270,11.0,12.0,75,0.00,,,0.02,meteohub,2013-01-20 21:54:00,
2013-01-20 17:58:00,78.1,68.4,29.85,NW,315,8.0,12.0,75,0.00,,,0.02,meteohub,2013-01-20 21:58:00,
2013-01-20 17:59:00,78.1,68.4,29.85,NW,315,8.0,12.0,75,0.00,,,0.02,meteohub,2013-01-20 21:59:00,
2013-01-20 18:00:00,77.9,68.4,29.86,West,270,9.0,12.0,75,0.00,,,0.02,meteohub,2013-01-20 22:00:00,
2013-01-20 18:04:00,77.9,68.4,29.86,SW,225,8.0,12.0,75,0.00,,,0.02,meteohub,2013-01-20 22:04:00,
2013-01-20 18:06:00,77.9,68.4,29.86,West,270,8.0,12.0,75,0.00,,,0.02,meteohub,2013-01-20 22:06:00,
2013-01-20 18:08:00,77.9,68.2,29.86,WSW,248,6.0,12.0,75,0.00,,,0.02,meteohub,2013-01-20 22:08:00,
2013-01-20 18:10:00,77.7,68.2,29.86,West,270,8.0,12.0,76,0.00,,,0.02,meteohub,2013-01-20 22:10:00,
2013-01-20 18:11:00,77.7,68.2,29.86,West,270,12.0,13.0,76,0.00,,,0.02,meteohub,2013-01-20 22:11:00,
2013-01-20 18:14:00,77.7,68.5,29.86,West,270,8.0,13.0,76,0.00,,,0.02,meteohub,2013-01-20 22:14:00,
2013-01-20 18:16:00,77.5,68.5,29.86,NW,315,11.0,13.0,77,0.00,,,0.02,meteohub,2013-01-20 22:16:00,
2013-01-20 18:17:00,77.5,68.5,29.86,West,270,9.0,13.0,77,0.00,,,0.02,meteohub,2013-01-20 22:17:00,
2013-01-20 18:18:00,77.7,68.5,29.86,West,270,7.0,13.0,77,0.00,,,0.02,meteohub,2013-01-20 22:18:00,
2013-01-20 18:22:00,77.5,68.5,29.86,West,270,9.0,13.0,77,0.00,,,0.02,meteohub,2013-01-20 22:22:00,
2013-01-20 18:23:00,77.5,68.5,29.86,West,270,9.0,13.0,77,0.00,,,0.02,meteohub,2013-01-20 22:23:00,
2013-01-20 18:27:00,77.5,68.4,29.86,NW,315,6.0,12.0,76,0.00,,,0.02,meteohub,2013-01-20 22:27:00,
2013-01-20 18:28:00,77.4,68.0,29.86,NW,315,8.0,12.0,76,0.00,,,0.02,meteohub,2013-01-20 22:28:00,
2013-01-20 18:29:00,77.4,68.0,29.86,West,270,6.0,12.0,76,0.00,,,0.02,meteohub,2013-01-20 22:29:00,
2013-01-20 18:32:00,77.4,68.0,29.86,NW,315,8.0,11.0,75,0.00,,,0.02,meteohub,2013-01-20 22:32:00,
2013-01-20 18:34:00,77.4,68.0,29.86,SW,225,8.0,11.0,75,0.00,,,0.02,meteohub,2013-01-20 22:34:00,
2013-01-20 18:36:00,77.4,68.0,29.86,West,270,8.0,10.0,75,0.00,,,0.02,meteohub,2013-01-20 22:36:00,
2013-01-20 18:40:00,77.4,67.8,29.86,NNW,338,8.0,10.0,75,0.00,,,0.02,meteohub,2013-01-20 22:40:00,
2013-01-20 18:41:00,77.4,67.8,29.86,NW,315,6.0,10.0,75,0.00,,,0.02,meteohub,2013-01-20 22:41:00,
2013-01-20 18:42:00,77.4,67.8,29.86,NW,315,6.0,10.0,75,0.00,,,0.02,meteohub,2013-01-20 22:42:00,
2013-01-20 18:45:00,77.4,67.8,29.87,SW,225,8.0,10.0,75,0.00,,,0.02,meteohub,2013-01-20 22:45:00,
2013-01-20 18:47:00,77.2,67.3,29.86,WSW,248,8.0,10.0,75,0.00,,,0.02,meteohub,2013-01-20 22:47:00,
2013-01-20 18:48:00,77.2,67.3,29.86,WSW,248,8.0,10.0,75,0.00,,,0.02,meteohub,2013-01-20 22:48:00,
2013-01-20 18:52:00,77.2,67.3,29.87,NW,315,5.0,9.0,74,0.00,,,0.02,meteohub,2013-01-20 22:52:00,
2013-01-20 18:53:00,77.2,67.3,29.87,West,270,8.0,9.0,74,0.00,,,0.02,meteohub,2013-01-20 22:53:00,
2013-01-20 18:56:00,77.2,67.3,29.87,West,270,7.0,9.0,74,0.00,,,0.02,meteohub,2013-01-20 22:56:00,
2013-01-20 18:57:00,77.2,67.3,29.87,SW,225,6.0,9.0,74,0.00,,,0.02,meteohub,2013-01-20 22:57:00,
2013-01-20 18:59:00,77.2,67.3,29.87,West,270,6.0,9.0,74,0.00,,,0.02,meteohub,2013-01-20 22:59:00,
2013-01-20 19:02:00,77.0,67.5,29.87,West,270,8.0,9.0,74,0.00,,,0.02,meteohub,2013-01-20 23:02:00,
2013-01-20 19:05:00,77.0,67.5,29.87,NW,315,7.0,9.0,74,0.00,,,0.02,meteohub,2013-01-20 23:05:00,
2013-01-20 19:07:00,77.0,67.1,29.87,West,270,8.0,9.0,74,0.00,,,0.02,meteohub,2013-01-20 23:07:00,
2013-01-20 19:08:00,77.0,67.1,29.87,West,270,8.0,9.0,74,0.00,,,0.02,meteohub,2013-01-20 23:08:00,
2013-01-20 19:10:00,77.0,67.1,29.87,North,0,8.0,9.0,74,0.00,,,0.02,meteohub,2013-01-20 23:10:00,
2013-01-20 19:12:00,77.0,67.1,29.87,West,270,7.0,8.0,74,0.00,,,0.02,meteohub,2013-01-20 23:12:00,
2013-01-20 19:13:00,77.0,67.1,29.88,NW,315,7.0,8.0,74,0.00,,,0.02,meteohub,2013-01-20 23:13:00,
2013-01-20 19:18:00,77.0,67.1,29.87,NW,315,6.0,11.0,74,0.00,,,0.02,meteohub,2013-01-20 23:18:00,
2013-01-20 19:19:00,77.0,67.1,29.87,West,270,5.0,11.0,74,0.00,,,0.02,meteohub,2013-01-20 23:19:00,
2013-01-20 19:20:00,77.0,67.1,29.87,NW,315,6.0,11.0,75,0.00,,,0.02,meteohub,2013-01-20 23:20:00,
2013-01-20 19:23:00,76.8,67.5,29.87,NW,315,6.0,11.0,76,0.00,,,0.02,meteohub,2013-01-20 23:23:00,
2013-01-20 19:24:00,76.8,67.5,29.87,SW,225,5.0,11.0,77,0.00,,,0.02,meteohub,2013-01-20 23:24:00,
2013-01-20 19:26:00,77.0,67.5,29.87,West,270,10.0,11.0,76,0.00,,,0.02,meteohub,2013-01-20 23:26:00,
2013-01-20 19:27:00,77.0,67.6,29.88,SW,225,8.0,11.0,76,0.00,,,0.02,meteohub,2013-01-20 23:27:00,
2013-01-20 19:29:00,77.0,67.6,29.88,NW,315,8.0,11.0,76,0.00,,,0.02,meteohub,2013-01-20 23:29:00,
2013-01-20 19:32:00,77.0,67.6,29.88,West,270,5.0,10.0,76,0.00,,,0.02,meteohub,2013-01-20 23:32:00,
2013-01-20 19:33:00,77.0,67.6,29.88,West,270,7.0,10.0,76,0.00,,,0.02,meteohub,2013-01-20 23:33:00,
2013-01-20 19:34:00,77.0,67.6,29.88,West,270,5.0,10.0,76,0.00,,,0.02,meteohub,2013-01-20 23:34:00,
2013-01-20 19:36:00,77.0,67.6,29.88,West,270,8.0,10.0,76,0.00,,,0.02,meteohub,2013-01-20 23:36:00,
2013-01-20 19:38:00,77.0,67.6,29.88,West,270,6.0,10.0,76,0.00,,,0.02,meteohub,2013-01-20 23:38:00,
2013-01-20 19:39:00,77.0,67.6,29.88,SW,225,8.0,10.0,76,0.00,,,0.02,meteohub,2013-01-20 23:39:00,
2013-01-20 19:41:00,77.0,67.6,29.88,West,270,6.0,10.0,76,0.00,,,0.02,meteohub,2013-01-20 23:41:00,
2013-01-20 19:43:00,77.0,67.6,29.88,NW,315,5.0,10.0,76,0.00,,,0.02,meteohub,2013-01-20 23:43:00,
2013-01-20 19:44:00,77.0,67.6,29.88,NW,315,7.0,10.0,76,0.00,,,0.02,meteohub,2013-01-20 23:44:00,
2013-01-20 19:45:00,77.0,67.6,29.88,NW,315,8.0,8.0,76,0.00,,,0.02,meteohub,2013-01-20 23:45:00,
2013-01-20 19:47:00,77.0,67.6,29.88,NW,315,7.0,8.0,76,0.00,,,0.02,meteohub,2013-01-20 23:47:00,
2013-01-20 19:48:00,77.0,67.6,29.88,West,270,7.0,8.0,76,0.00,,,0.02,meteohub,2013-01-20 23:48:00,
2013-01-20 19:51:00,77.0,67.6,29.88,West,270,8.0,8.0,76,0.00,,,0.02,meteohub,2013-01-20 23:51:00,
2013-01-20 19:53:00,76.8,67.6,29.88,SW,225,4.0,8.0,78,0.00,,,0.02,meteohub,2013-01-20 23:53:00,
2013-01-20 19:54:00,76.8,67.6,29.88,WNW,293,4.0,8.0,78,0.00,,,0.02,meteohub,2013-01-20 23:54:00,
2013-01-20 19:56:00,76.6,68.2,29.88,West,270,7.0,8.0,78,0.00,,,0.02,meteohub,2013-01-20 23:56:00,
2013-01-20 19:59:00,76.6,68.4,29.88,NW,315,4.0,8.0,78,0.00,,,0.02,meteohub,2013-01-20 23:59:00,
2013-01-20 20:00:00,76.5,68.2,29.88,North,0,4.0,8.0,78,0.00,,,0.02,meteohub,2013-01-21 00:00:00,
2013-01-20 20:02:00,76.5,68.4,29.88,NW,315,7.0,8.0,78,0.00,,,0.02,meteohub,2013-01-21 00:02:00,
2013-01-20 20:03:00,76.3,68.2,29.88,WNW,293,4.0,8.0,78,0.00,,,0.02,meteohub,2013-01-21 00:03:00,
2013-01-20 20:04:00,76.1,68.4,29.88,NW,315,6.0,8.0,79,0.00,,,0.02,meteohub,2013-01-21 00:04:00,
2013-01-20 20:06:00,76.1,68.4,29.88,NW,315,5.0,8.0,79,0.00,,,0.00,meteohub,2013-01-21 00:06:00,
2013-01-20 20:07:00,75.9,68.4,29.89,North,0,6.0,8.0,79,0.00,,,0.00,meteohub,2013-01-21 00:07:00,
2013-01-20 20:10:00,75.7,68.4,29.88,NW,315,5.0,8.0,79,0.00,,,0.00,meteohub,2013-01-21 00:10:00,
2013-01-20 20:11:00,75.7,68.4,29.88,NNW,338,4.0,7.0,79,0.00,,,0.00,meteohub,2013-01-21 00:11:00,
2013-01-20 20:12:00,75.6,68.4,29.88,North,0,5.0,7.0,80,0.00,,,0.00,meteohub,2013-01-21 00:12:00,
2013-01-20 20:16:00,75.4,67.8,29.89,NW,315,9.0,9.0,80,0.00,,,0.00,meteohub,2013-01-21 00:16:00,
2013-01-20 20:17:00,75.4,67.8,29.89,WNW,293,8.0,8.0,80,0.00,,,0.00,meteohub,2013-01-21 00:17:00,
2013-01-20 20:18:00,75.4,67.8,29.89,NW,315,6.0,7.0,80,0.00,,,0.00,meteohub,2013-01-21 00:18:00,
2013-01-20 20:21:00,75.4,67.8,29.89,NW,315,4.0,9.0,80,0.00,,,0.00,meteohub,2013-01-21 00:21:00,
2013-01-20 20:22:00,75.4,67.8,29.88,WNW,293,6.0,9.0,80,0.00,,,0.00,meteohub,2013-01-21 00:22:00,
2013-01-20 20:24:00,75.2,67.8,29.89,NW,315,6.0,9.0,80,0.00,,,0.00,meteohub,2013-01-21 00:24:00,
2013-01-20 20:28:00,75.0,67.8,29.89,NW,315,4.0,9.0,82,0.00,,,0.00,meteohub,2013-01-21 00:28:00,
2013-01-20 20:29:00,75.0,67.8,29.89,NW,315,7.0,9.0,82,0.00,,,0.00,meteohub,2013-01-21 00:29:00,
2013-01-20 20:30:00,75.0,67.8,29.89,North,0,5.0,9.0,82,0.00,,,0.00,meteohub,2013-01-21 00:30:00,
2013-01-20 20:34:00,74.8,67.8,29.89,West,270,6.0,9.0,82,0.00,,,0.00,meteohub,2013-01-21 00:34:00,
2013-01-20 20:36:00,74.7,67.8,29.89,NW,315,5.0,7.0,83,0.00,,,0.00,meteohub,2013-01-21 00:36:00,
2013-01-20 20:37:00,74.7,67.8,29.89,NW,315,8.0,8.0,83,0.00,,,0.00,meteohub,2013-01-21 00:37:00,
2013-01-20 20:42:00,74.5,67.8,29.89,NNW,338,5.0,8.0,83,0.00,,,0.00,meteohub,2013-01-21 00:42:00,
2013-01-20 20:43:00,74.5,67.8,29.89,NW,315,6.0,8.0,84,0.00,,,0.00,meteohub,2013-01-21 00:43:00,
2013-01-20 20:44:00,74.5,67.8,29.89,NNW,338,5.0,8.0,84,0.00,,,0.00,meteohub,2013-01-21 00:44:00,
2013-01-20 20:48:00,74.5,67.8,29.89,NW,315,5.0,8.0,84,0.00,,,0.00,meteohub,2013-01-21 00:48:00,
2013-01-20 20:49:00,74.3,68.0,29.89,NW,315,4.0,8.0,84,0.00,,,0.00,meteohub,2013-01-21 00:49:00,
2013-01-20 20:51:00,74.3,68.0,29.89,North,0,9.0,9.0,84,0.00,,,0.00,meteohub,2013-01-21 00:51:00,
2013-01-20 20:53:00,74.3,68.0,29.89,NW,315,6.0,8.0,85,0.00,,,0.00,meteohub,2013-01-21 00:53:00,
2013-01-20 20:54:00,74.3,68.0,29.89,NW,315,5.0,8.0,85,0.00,,,0.00,meteohub,2013-01-21 00:54:00,
2013-01-20 20:55:00,74.3,68.0,29.89,NW,315,5.0,8.0,85,0.00,,,0.00,meteohub,2013-01-21 00:55:00,
2013-01-20 20:59:00,74.1,68.0,29.90,NW,315,6.0,9.0,85,0.00,,,0.00,meteohub,2013-01-21 00:59:00,
2013-01-20 21:00:00,73.9,68.0,29.90,NNW,338,4.0,9.0,85,0.00,,,0.00,meteohub,2013-01-21 01:00:00,
2013-01-20 21:01:00,73.9,68.0,29.90,NW,315,6.0,9.0,85,0.00,,,0.00,meteohub,2013-01-21 01:01:00,
2013-01-20 21:02:00,73.9,68.0,29.90,NW,315,4.0,9.0,85,0.00,,,0.00,meteohub,2013-01-21 01:02:00,
2013-01-20 21:06:00,73.9,68.0,29.90,NW,315,4.0,9.0,85,0.00,,,0.00,meteohub,2013-01-21 01:06:00,
2013-01-20 21:07:00,73.9,68.0,29.90,NW,315,4.0,9.0,85,0.00,,,0.00,meteohub,2013-01-21 01:07:00,
2013-01-20 21:08:00,73.8,68.0,29.90,North,0,4.0,9.0,85,0.00,,,0.00,meteohub,2013-01-21 01:08:00,
2013-01-20 21:11:00,73.8,68.0,29.90,NW,315,4.0,8.0,85,0.00,,,0.00,meteohub,2013-01-21 01:11:00,
2013-01-20 21:13:00,73.8,68.0,29.90,NW,315,4.0,8.0,85,0.00,,,0.00,meteohub,2013-01-21 01:13:00,
2013-01-20 21:16:00,73.6,68.0,29.90,NW,315,4.0,8.0,86,0.00,,,0.00,meteohub,2013-01-21 01:16:00,
2013-01-20 21:17:00,73.6,68.0,29.90,NW,315,5.0,8.0,86,0.00,,,0.00,meteohub,2013-01-21 01:17:00,
2013-01-20 21:18:00,73.6,68.0,29.90,NW,315,4.0,8.0,86,0.00,,,0.00,meteohub,2013-01-21 01:18:00,
2013-01-20 21:19:00,73.6,68.0,29.90,North,0,4.0,8.0,86,0.00,,,0.00,meteohub,2013-01-21 01:19:00,
2013-01-20 21:21:00,73.4,68.0,29.91,North,0,4.0,5.0,86,0.00,,,0.00,meteohub,2013-01-21 01:21:00,
2013-01-20 21:22:00,73.4,68.0,29.90,NW,315,4.0,5.0,86,0.00,,,0.00,meteohub,2013-01-21 01:22:00,
2013-01-20 21:25:00,73.4,68.0,29.90,NW,315,4.0,5.0,86,0.00,,,0.00,meteohub,2013-01-21 01:25:00,
2013-01-20 21:27:00,73.2,68.0,29.90,NW,315,4.0,5.0,85,0.00,,,0.00,meteohub,2013-01-21 01:27:00,
2013-01-20 21:28:00,73.2,68.0,29.91,NW,315,4.0,5.0,85,0.00,,,0.00,meteohub,2013-01-21 01:28:00,
2013-01-20 21:31:00,73.2,68.0,29.90,NW,315,4.0,5.0,85,0.00,,,0.00,meteohub,2013-01-21 01:31:00,
2013-01-20 21:33:00,73.2,67.8,29.90,NW,315,5.0,5.0,86,0.00,,,0.00,meteohub,2013-01-21 01:33:00,
2013-01-20 21:36:00,73.4,67.8,29.90,NW,315,6.0,7.0,87,0.00,,,0.00,meteohub,2013-01-21 01:36:00,
2013-01-20 21:37:00,73.4,67.8,29.91,NW,315,5.0,7.0,87,0.00,,,0.00,meteohub,2013-01-21 01:37:00,
2013-01-20 21:38:00,73.4,68.4,29.90,NW,315,5.0,7.0,87,0.00,,,0.00,meteohub,2013-01-21 01:38:00,
2013-01-20 21:42:00,73.6,68.4,29.91,North,0,4.0,7.0,87,0.00,,,0.00,meteohub,2013-01-21 01:42:00,
2013-01-20 21:43:00,73.6,68.4,29.91,North,0,4.0,7.0,87,0.00,,,0.00,meteohub,2013-01-21 01:43:00,
2013-01-20 21:44:00,73.6,68.4,29.91,NW,315,5.0,7.0,86,0.00,,,0.00,meteohub,2013-01-21 01:44:00,
2013-01-20 21:47:00,73.6,68.4,29.91,NW,315,6.0,7.0,86,0.00,,,0.00,meteohub,2013-01-21 01:47:00,
2013-01-20 21:49:00,73.8,68.4,29.91,NW,315,4.0,7.0,86,0.00,,,0.00,meteohub,2013-01-21 01:49:00,
2013-01-20 21:51:00,73.8,68.4,29.91,NW,315,4.0,7.0,86,0.00,,,0.00,meteohub,2013-01-21 01:51:00,
2013-01-20 21:53:00,73.8,68.4,29.91,NW,315,4.0,7.0,86,0.00,,,0.00,meteohub,2013-01-21 01:53:00,
2013-01-20 21:54:00,73.8,68.4,29.91,NNW,338,4.0,7.0,86,0.00,,,0.00,meteohub,2013-01-21 01:54:00,
2013-01-20 21:59:00,73.6,68.4,29.91,WNW,293,5.0,7.0,86,0.00,,,0.00,meteohub,2013-01-21 01:59:00,
2013-01-20 22:01:00,73.6,68.4,29.91,West,270,7.0,7.0,85,0.00,,,0.00,meteohub,2013-01-21 02:01:00,
2013-01-20 22:05:00,73.8,68.4,29.91,NW,315,6.0,7.0,85,0.00,,,0.00,meteohub,2013-01-21 02:05:00,
2013-01-20 22:07:00,73.8,67.8,29.91,NW,315,4.0,7.0,85,0.00,,,0.00,meteohub,2013-01-21 02:07:00,
2013-01-20 22:08:00,73.8,67.8,29.90,NW,315,4.0,7.0,85,0.00,,,0.00,meteohub,2013-01-21 02:08:00,
2013-01-20 22:12:00,73.8,67.8,29.91,NW,315,5.0,7.0,85,0.00,,,0.00,meteohub,2013-01-21 02:12:00,
2013-01-20 22:15:00,73.6,67.8,29.90,West,270,5.0,7.0,85,0.00,,,0.00,meteohub,2013-01-21 02:15:00,
2013-01-20 22:17:00,73.6,67.8,29.90,NW,315,4.0,7.0,85,0.00,,,0.00,meteohub,2013-01-21 02:17:00,
2013-01-20 22:18:00,73.6,67.8,29.90,NW,315,7.0,7.0,85,0.00,,,0.00,meteohub,2013-01-21 02:18:00,
2013-01-20 22:19:00,73.6,67.8,29.91,NW,315,4.0,7.0,85,0.00,,,0.00,meteohub,2013-01-21 02:19:00,
2013-01-20 22:21:00,73.6,67.6,29.90,NW,315,5.0,7.0,85,0.00,,,0.00,meteohub,2013-01-21 02:21:00,
2013-01-20 22:22:00,73.6,67.6,29.90,North,0,4.0,7.0,85,0.00,,,0.00,meteohub,2013-01-21 02:22:00,
2013-01-20 22:25:00,73.6,67.6,29.91,NW,315,4.0,7.0,85,0.00,,,0.00,meteohub,2013-01-21 02:25:00,
2013-01-20 22:26:00,73.6,67.6,29.91,NW,315,7.0,7.0,85,0.00,,,0.00,meteohub,2013-01-21 02:26:00,
2013-01-20 22:27:00,73.4,67.6,29.90,NW,315,5.0,7.0,85,0.00,,,0.00,meteohub,2013-01-21 02:27:00,
2013-01-20 22:28:00,73.4,67.6,29.90,NW,315,5.0,7.0,85,0.00,,,0.00,meteohub,2013-01-21 02:28:00,
2013-01-20 22:32:00,73.4,67.6,29.90,NW,315,6.0,7.0,85,0.00,,,0.00,meteohub,2013-01-21 02:32:00,
2013-01-20 22:33:00,73.4,67.6,29.90,NW,315,6.0,7.0,85,0.00,,,0.00,meteohub,2013-01-21 02:33:00,
2013-01-20 22:34:00,73.2,67.6,29.90,NW,315,4.0,7.0,83,0.00,,,0.00,meteohub,2013-01-21 02:34:00,
2013-01-20 22:39:00,73.2,67.6,29.90,NW,315,4.0,8.0,83,0.00,,,0.00,meteohub,2013-01-21 02:39:00,
2013-01-20 22:40:00,73.2,67.5,29.90,NW,315,6.0,8.0,83,0.00,,,0.00,meteohub,2013-01-21 02:40:00,
2013-01-20 22:41:00,73.2,67.5,29.91,NW,315,6.0,8.0,83,0.00,,,0.00,meteohub,2013-01-21 02:41:00,
2013-01-20 22:45:00,73.2,67.5,29.91,NW,315,4.0,8.0,83,0.00,,,0.00,meteohub,2013-01-21 02:45:00,
2013-01-20 22:46:00,73.2,67.5,29.91,NW,315,4.0,6.0,83,0.00,,,0.00,meteohub,2013-01-21 02:46:00,
2013-01-20 22:49:00,73.0,67.5,29.91,NNW,338,4.0,6.0,83,0.00,,,0.00,meteohub,2013-01-21 02:49:00,
2013-01-20 22:50:00,73.0,67.5,29.91,NW,315,4.0,6.0,83,0.00,,,0.00,meteohub,2013-01-21 02:50:00,
2013-01-20 22:52:00,73.0,67.5,29.91,NW,315,4.0,6.0,83,0.00,,,0.00,meteohub,2013-01-21 02:52:00,
2013-01-20 22:54:00,73.0,67.5,29.91,NW,315,5.0,6.0,83,0.00,,,0.00,meteohub,2013-01-21 02:54:00,
2013-01-20 22:57:00,73.0,67.5,29.91,NW,315,5.0,7.0,84,0.00,,,0.00,meteohub,2013-01-21 02:57:00,
2013-01-20 22:58:00,72.9,67.5,29.91,NW,315,5.0,7.0,84,0.00,,,0.00,meteohub,2013-01-21 02:58:00,
2013-01-20 23:00:00,72.9,67.3,29.91,NW,315,4.0,7.0,84,0.00,,,0.00,meteohub,2013-01-21 03:00:00,
2013-01-20 23:02:00,72.9,67.3,29.91,WNW,293,6.0,7.0,84,0.00,,,0.00,meteohub,2013-01-21 03:02:00,
2013-01-20 23:03:00,72.9,67.3,29.91,NW,315,6.0,7.0,84,0.00,,,0.00,meteohub,2013-01-21 03:03:00,
2013-01-20 23:05:00,72.9,67.3,29.91,North,0,5.0,7.0,84,0.00,,,0.00,meteohub,2013-01-21 03:05:00,
2013-01-20 23:07:00,72.7,67.3,29.91,North,0,4.0,7.0,84,0.00,,,0.00,meteohub,2013-01-21 03:07:00,
2013-01-20 23:08:00,72.7,67.3,29.91,NW,315,4.0,7.0,84,0.00,,,0.00,meteohub,2013-01-21 03:08:00,
2013-01-20 23:10:00,72.7,67.3,29.91,North,0,6.0,7.0,84,0.00,,,0.00,meteohub,2013-01-21 03:10:00,
2013-01-20 23:11:00,72.7,67.3,29.91,North,0,6.0,7.0,84,0.00,,,0.00,meteohub,2013-01-21 03:11:00,
2013-01-20 23:12:00,72.7,67.3,29.91,NW,315,5.0,7.0,84,0.00,,,0.00,meteohub,2013-01-21 03:12:00,
2013-01-20 23:14:00,72.7,67.3,29.91,NNW,338,5.0,7.0,84,0.00,,,0.00,meteohub,2013-01-21 03:14:00,
2013-01-20 23:16:00,72.5,67.3,29.91,North,0,4.0,6.0,84,0.00,,,0.00,meteohub,2013-01-21 03:16:00,
2013-01-20 23:17:00,72.5,67.3,29.91,NW,315,4.0,6.0,84,0.00,,,0.00,meteohub,2013-01-21 03:17:00,
2013-01-20 23:18:00,72.5,67.3,29.91,NW,315,4.0,6.0,84,0.00,,,0.00,meteohub,2013-01-21 03:18:00,
2013-01-20 23:22:00,72.3,67.3,29.91,NW,315,5.0,6.0,85,0.00,,,0.00,meteohub,2013-01-21 03:22:00,
2013-01-20 23:24:00,72.3,67.3,29.91,North,0,5.0,6.0,85,0.00,,,0.00,meteohub,2013-01-21 03:24:00,
2013-01-20 23:26:00,72.1,67.1,29.91,NNW,338,4.0,6.0,85,0.00,,,0.00,meteohub,2013-01-21 03:26:00,
2013-01-20 23:27:00,72.1,67.1,29.91,North,0,4.0,6.0,85,0.00,,,0.00,meteohub,2013-01-21 03:27:00,
2013-01-20 23:30:00,72.1,67.1,29.91,North,0,4.0,6.0,85,0.00,,,0.00,meteohub,2013-01-21 03:30:00,
2013-01-20 23:31:00,72.1,67.1,29.91,NW,315,5.0,6.0,85,0.00,,,0.00,meteohub,2013-01-21 03:31:00,
2013-01-20 23:32:00,72.0,67.1,29.91,North,0,5.0,6.0,85,0.00,,,0.00,meteohub,2013-01-21 03:32:00,
2013-01-20 23:34:00,72.0,67.1,29.91,North,0,4.0,6.0,85,0.00,,,0.00,meteohub,2013-01-21 03:34:00,
2013-01-20 23:37:00,72.0,67.1,29.91,NNE,23,5.0,6.0,85,0.00,,,0.00,meteohub,2013-01-21 03:37:00,
2013-01-20 23:38:00,72.0,67.1,29.91,NNE,23,5.0,6.0,85,0.00,,,0.00,meteohub,2013-01-21 03:38:00,
2013-01-20 23:40:00,71.8,67.1,29.91,North,0,4.0,6.0,86,0.00,,,0.00,meteohub,2013-01-21 03:40:00,
2013-01-20 23:42:00,71.6,67.1,29.91,North,0,4.0,6.0,86,0.00,,,0.00,meteohub,2013-01-21 03:42:00,
2013-01-20 23:44:00,71.6,67.1,29.91,North,0,4.0,6.0,86,0.00,,,0.00,meteohub,2013-01-21 03:44:00,
2013-01-20 23:46:00,71.6,67.1,29.91,North,0,4.0,5.0,86,0.00,,,0.00,meteohub,2013-01-21 03:46:00,
2013-01-20 23:48:00,71.6,67.1,29.91,NNW,338,5.0,5.0,86,0.00,,,0.00,meteohub,2013-01-21 03:48:00,
2013-01-20 23:49:00,71.6,67.1,29.91,North,0,4.0,5.0,86,0.00,,,0.00,meteohub,2013-01-21 03:49:00,
2013-01-20 23:51:00,71.6,67.1,29.90,North,0,4.0,5.0,86,0.00,,,0.00,meteohub,2013-01-21 03:51:00,
2013-01-20 23:52:00,71.6,67.1,29.91,North,0,4.0,5.0,86,0.00,,,0.00,meteohub,2013-01-21 03:52:00,
2013-01-20 23:53:00,71.6,67.1,29.90,North,0,4.0,5.0,86,0.00,,,0.00,meteohub,2013-01-21 03:53:00,
2013-01-20 23:57:00,71.8,67.1,29.90,North,0,4.0,5.0,86,0.00,,,0.00,meteohub,2013-01-21 03:57:00,